IBE0138 SEQM-LEMD

Flight info

Callsign IBE0138
Flight time N/A
Altitude 37000
Route NEGAL3A NEGAL DCT BOKAN UP533 BNS UW50 PBL UP533 OPTUB DCT MUGPU DCT EDNAK DCT EGAVU DCT ITEGO/N0484F390 DCT 1437N06259W DCT OVIVU DCT FAMPS DCT CITRS/M084F390 DCT 20N055W 23N050W 29N040W 33N030W/M084F410 3630N02000W DCT KOMUT/N0482F400 DCT TOFEF DCT OGERO Z409 TLD
Aircraft A359/H-SDE2E3GHIJ3J4J5LM1ORWXY/LB1D1

Departure

Time 2026-04-28 21:10
Airport Mariscal Sucre International Airport (SEQM)

Arrival

Time N/A
Airport Adolfo Suárez Madrid–Barajas Airport (LEMD)
Time Latitude Longitude Altitude Speed Heading
2026-04-28 20:30 -0.12257 -78.35920 7843 ft 0 kts 268°
2026-04-28 20:56 -0.12256 -78.35919 7847 ft 1 kts 268°
2026-04-28 20:56 -0.12256 -78.35901 7837 ft 3 kts 268°
2026-04-28 20:56 -0.12255 -78.35885 7843 ft 2 kts 266°
2026-04-28 20:57 -0.12253 -78.35866 7840 ft 3 kts 246°
2026-04-28 20:57 -0.12243 -78.35851 7837 ft 3 kts 208°
2026-04-28 20:57 -0.12225 -78.35846 7842 ft 3 kts 178°
2026-04-28 20:57 -0.12208 -78.35848 7848 ft 4 kts 174°
2026-04-28 21:02 -0.12240 -78.35847 7842 ft 8 kts 180°
2026-04-28 21:02 -0.12296 -78.35845 7847 ft 9 kts 178°
2026-04-28 21:02 -0.12362 -78.35843 7847 ft 10 kts 178°
2026-04-28 21:03 -0.12441 -78.35840 7847 ft 12 kts 178°
2026-04-28 21:03 -0.12535 -78.35836 7841 ft 15 kts 178°
2026-04-28 21:03 -0.12637 -78.35831 7846 ft 11 kts 177°
2026-04-28 21:03 -0.12692 -78.35807 7837 ft 8 kts 122°
2026-04-28 21:04 -0.12696 -78.35749 7848 ft 9 kts 86°
2026-04-28 21:04 -0.12691 -78.35681 7849 ft 11 kts 86°
2026-04-28 21:04 -0.12699 -78.35613 7850 ft 8 kts 128°
2026-04-28 21:04 -0.12753 -78.35600 7851 ft 9 kts 176°
2026-04-28 21:05 -0.12822 -78.35596 7852 ft 11 kts 178°
2026-04-28 21:05 -0.12913 -78.35593 7854 ft 15 kts 178°
2026-04-28 21:05 -0.13031 -78.35588 7858 ft 19 kts 177°
2026-04-28 21:05 -0.13167 -78.35582 7868 ft 20 kts 177°
2026-04-28 21:06 -0.13309 -78.35576 7874 ft 20 kts 177°
2026-04-28 21:06 -0.13440 -78.35570 7880 ft 18 kts 177°
2026-04-28 21:06 -0.13564 -78.35565 7889 ft 18 kts 177°
2026-04-28 21:06 -0.13689 -78.35560 7896 ft 18 kts 177°
2026-04-28 21:07 -0.13826 -78.35554 7905 ft 21 kts 177°
2026-04-28 21:07 -0.13984 -78.35547 7912 ft 23 kts 178°
2026-04-28 21:07 -0.14125 -78.35541 7920 ft 18 kts 178°
2026-04-28 21:07 -0.14228 -78.35528 7927 ft 10 kts 153°
2026-04-28 21:08 -0.14249 -78.35501 7928 ft 3 kts 114°
2026-04-28 21:08 -0.14254 -78.35480 7926 ft 3 kts 102°
2026-04-28 21:08 -0.14256 -78.35439 7924 ft 8 kts 87°
2026-04-28 21:08 -0.14252 -78.35378 7917 ft 7 kts 76°
2026-04-28 21:09 -0.14230 -78.35369 7925 ft 3 kts 359°
2026-04-28 21:09 -0.14192 -78.35371 7923 ft 20 kts 358°
2026-04-28 21:09 -0.13850 -78.35386 7912 ft 75 kts 358°
2026-04-28 21:09 -0.13162 -78.35413 7887 ft 122 kts 358°
2026-04-28 21:10 -0.12162 -78.35457 7837 ft 164 kts 358°
2026-04-28 21:10 -0.11000 -78.35500 8233 ft 166 kts 358°
2026-04-28 21:10 -0.09859 -78.35539 8816 ft 165 kts
2026-04-28 21:10 -0.08665 -78.35572 9044 ft 180 kts 359°
2026-04-28 21:11 -0.07396 -78.35887 9227 ft 195 kts 341°
2026-04-28 21:11 -0.06100 -78.36391 9425 ft 204 kts 339°
2026-04-28 21:11 -0.04739 -78.36917 9621 ft 215 kts 340°
2026-04-28 21:11 -0.03298 -78.37443 9771 ft 228 kts 341°
2026-04-28 21:12 -0.01753 -78.37987 9892 ft 241 kts 342°
2026-04-28 21:12 -0.00131 -78.38543 10112 ft 251 kts 343°
2026-04-28 21:12 0.01552 -78.39112 10329 ft 261 kts 340°
2026-04-28 21:12 0.03308 -78.39706 10481 ft 273 kts 340°
2026-04-28 21:13 0.05150 -78.40329 10666 ft 285 kts 341°
2026-04-28 21:13 0.07064 -78.40974 10861 ft 297 kts 341°
2026-04-28 21:13 0.09062 -78.41645 11074 ft 308 kts 341°
2026-04-28 21:13 0.11117 -78.42334 11390 ft 313 kts 342°
2026-04-28 21:14 0.13189 -78.43030 11837 ft 315 kts 342°
2026-04-28 21:14 0.15274 -78.43730 12224 ft 317 kts 342°
2026-04-28 21:14 0.16677 -78.44243 12495 ft 319 kts 339°
2026-04-28 21:14 0.18739 -78.45104 12917 ft 323 kts 339°
2026-04-28 21:15 0.20817 -78.45989 13341 ft 327 kts 339°
2026-04-28 21:15 0.22910 -78.46870 13574 ft 336 kts 340°
2026-04-28 21:15 0.25104 -78.47781 13749 ft 347 kts 339°
2026-04-28 21:15 0.27358 -78.48725 13930 ft 356 kts 339°
2026-04-28 21:16 0.29667 -78.49681 14044 ft 364 kts 340°
2026-04-28 21:16 0.32040 -78.50660 14212 ft 372 kts 340°
2026-04-28 21:16 0.34460 -78.51658 14439 ft 381 kts 340°
2026-04-28 21:16 0.36932 -78.52678 14664 ft 387 kts 340°
2026-04-28 21:17 0.39446 -78.53679 14865 ft 392 kts 343°
2026-04-28 21:17 0.42104 -78.54335 15125 ft 393 kts 354°
2026-04-28 21:17 0.44822 -78.54391 15463 ft 391 kts
2026-04-28 21:17 0.47476 -78.53822 15766 ft 389 kts 21°
2026-04-28 21:18 0.49909 -78.52673 16082 ft 388 kts 33°
2026-04-28 21:18 0.52019 -78.50991 16385 ft 388 kts 47°
2026-04-28 21:18 0.53690 -78.48891 16733 ft 387 kts 59°
2026-04-28 21:18 0.54993 -78.46527 16950 ft 391 kts 64°
2026-04-28 21:19 0.56146 -78.44062 17316 ft 391 kts 67°
2026-04-28 21:19 0.57230 -78.41561 17574 ft 394 kts 68°
2026-04-28 21:19 0.58296 -78.39036 17956 ft 395 kts 68°
2026-04-28 21:19 0.59367 -78.36510 18200 ft 398 kts 67°
2026-04-28 21:20 0.60461 -78.33965 18537 ft 397 kts 67°
2026-04-28 21:20 0.61571 -78.31422 18770 ft 400 kts 66°
2026-04-28 21:20 0.62697 -78.28871 19010 ft 401 kts 66°
2026-04-28 21:20 0.63829 -78.26327 19280 ft 403 kts 66°
2026-04-28 21:21 0.64973 -78.23761 19465 ft 405 kts 66°
2026-04-28 21:21 0.66121 -78.21185 19723 ft 406 kts 66°
2026-04-28 21:21 0.67274 -78.18597 19915 ft 410 kts 66°
2026-04-28 21:21 0.68432 -78.15997 20229 ft 409 kts 66°
2026-04-28 21:22 0.69590 -78.13393 20418 ft 412 kts 66°
2026-04-28 21:22 0.70755 -78.10780 20706 ft 412 kts 66°
2026-04-28 21:22 0.71922 -78.08159 20895 ft 414 kts 67°
2026-04-28 21:22 0.73093 -78.05524 21133 ft 415 kts 66°
2026-04-28 21:23 0.74269 -78.02878 21324 ft 419 kts 67°
2026-04-28 21:23 0.75455 -78.00212 21554 ft 421 kts 66°
2026-04-28 21:23 0.76651 -77.97526 21716 ft 424 kts 66°
2026-04-28 21:23 0.77850 -77.94832 21982 ft 425 kts 67°
2026-04-28 21:24 0.79051 -77.92139 22289 ft 424 kts 66°
2026-04-28 21:24 0.80423 -77.89521 22534 ft 426 kts 59°
2026-04-28 21:24 0.82147 -77.87105 22709 ft 430 kts 51°
2026-04-28 21:24 0.84169 -77.84900 22895 ft 432 kts 47°
2026-04-28 21:25 0.86303 -77.82778 23093 ft 434 kts 45°
2026-04-28 21:25 0.88500 -77.80699 23574 ft 435 kts 44°
2026-04-28 21:25 0.90718 -77.78638 23725 ft 437 kts 44°
2026-04-28 21:25 0.92955 -77.76567 23902 ft 438 kts 44°
2026-04-28 21:26 0.95188 -77.74491 24011 ft 440 kts 44°
2026-04-28 21:26 0.97425 -77.72400 24194 ft 441 kts 44°
2026-04-28 21:26 0.99667 -77.70292 24317 ft 443 kts 44°
2026-04-28 21:26 1.01909 -77.68176 24476 ft 443 kts 45°
2026-04-28 21:27 1.04117 -77.66087 24590 ft 445 kts 45°
2026-04-28 21:27 1.06370 -77.63954 24738 ft 446 kts 45°
2026-04-28 21:27 1.08626 -77.61818 24833 ft 448 kts 45°
2026-04-28 21:27 1.10890 -77.59677 24983 ft 448 kts 44°
2026-04-28 21:28 1.13160 -77.57532 25093 ft 450 kts 45°
2026-04-28 21:28 1.15434 -77.55383 25250 ft 451 kts 45°
2026-04-28 21:28 1.17716 -77.53228 25343 ft 452 kts 45°
2026-04-28 21:28 1.19999 -77.51069 25468 ft 453 kts 45°
2026-04-28 21:29 1.22299 -77.48896 25610 ft 455 kts 45°
2026-04-28 21:29 1.24595 -77.46722 25766 ft 456 kts 45°
2026-04-28 21:29 1.26899 -77.44540 25929 ft 456 kts 45°
2026-04-28 21:29 1.29209 -77.42354 26065 ft 458 kts 45°
2026-04-28 21:30 1.31523 -77.40166 26237 ft 459 kts 45°
2026-04-28 21:30 1.33848 -77.37969 26349 ft 461 kts 45°
2026-04-28 21:30 1.36180 -77.35766 26516 ft 462 kts 45°
2026-04-28 21:30 1.38520 -77.33552 26648 ft 463 kts 45°
2026-04-28 21:31 1.40860 -77.31341 26769 ft 464 kts 44°
2026-04-28 21:31 1.43211 -77.29118 26901 ft 465 kts 45°
2026-04-28 21:31 1.45563 -77.26893 27040 ft 466 kts 44°
2026-04-28 21:31 1.47925 -77.24661 27190 ft 468 kts 44°
2026-04-28 21:32 1.50289 -77.22427 27297 ft 469 kts 45°
2026-04-28 21:32 1.52663 -77.20180 27416 ft 471 kts 45°
2026-04-28 21:32 1.55046 -77.17926 27545 ft 472 kts 45°
2026-04-28 21:32 1.57432 -77.15669 27692 ft 473 kts 44°
2026-04-28 21:33 1.59820 -77.13411 27825 ft 474 kts 45°
2026-04-28 21:33 1.62218 -77.11145 27962 ft 475 kts 44°
2026-04-28 21:33 1.67028 -77.06591 28242 ft 477 kts 45°
2026-04-28 21:34 1.69444 -77.04306 28384 ft 478 kts 45°
2026-04-28 21:34 1.71859 -77.02022 28515 ft 480 kts 45°
2026-04-28 21:34 1.74258 -76.99754 28619 ft 481 kts 45°
2026-04-28 21:34 1.76690 -76.97452 28759 ft 482 kts 45°
2026-04-28 21:35 1.79124 -76.95148 28870 ft 482 kts 45°
2026-04-28 21:35 1.81593 -76.92811 29055 ft 483 kts 45°
2026-04-28 21:35 1.84005 -76.90530 29190 ft 485 kts 45°
2026-04-28 21:35 1.86454 -76.88213 29317 ft 486 kts 44°
2026-04-28 21:36 1.88915 -76.85882 29427 ft 487 kts 45°
2026-04-28 21:36 1.91381 -76.83548 29554 ft 489 kts 45°
2026-04-28 21:36 1.93854 -76.81207 29691 ft 490 kts 45°
2026-04-28 21:36 1.96335 -76.78860 29869 ft 491 kts 45°
2026-04-28 21:37 1.98819 -76.76510 30006 ft 492 kts 45°
2026-04-28 21:37 2.01306 -76.74156 30149 ft 493 kts 45°
2026-04-28 21:37 2.03802 -76.71794 30277 ft 495 kts 45°
2026-04-28 21:37 2.06305 -76.69425 30409 ft 495 kts 45°
2026-04-28 21:38 2.11316 -76.64682 30691 ft 498 kts 45°
2026-04-28 21:38 2.13836 -76.62297 30820 ft 498 kts 45°
2026-04-28 21:38 2.16355 -76.59912 30936 ft 499 kts 45°
2026-04-28 21:39 2.18879 -76.57522 31070 ft 500 kts 45°
2026-04-28 21:39 2.21404 -76.55130 31198 ft 501 kts 45°
2026-04-28 21:39 2.23940 -76.52729 31331 ft 502 kts 44°
2026-04-28 21:39 2.26469 -76.50333 31482 ft 502 kts 44°
2026-04-28 21:40 2.29011 -76.47926 31606 ft 503 kts 45°
2026-04-28 21:40 2.31549 -76.45523 31718 ft 503 kts 45°
2026-04-28 21:40 2.34092 -76.43115 31822 ft 504 kts 45°
2026-04-28 21:40 2.36639 -76.40703 31941 ft 505 kts 45°
2026-04-28 21:41 2.41748 -76.35864 32156 ft 506 kts 45°
2026-04-28 21:41 2.44304 -76.33442 32301 ft 506 kts 45°
2026-04-28 21:41 2.46862 -76.31019 32395 ft 507 kts 44°
2026-04-28 21:42 2.49429 -76.28586 32496 ft 508 kts 45°
2026-04-28 21:42 2.51989 -76.26161 32671 ft 507 kts 45°
2026-04-28 21:42 2.54551 -76.23732 32829 ft 506 kts 45°
2026-04-28 21:42 2.57093 -76.21324 33000 ft 506 kts 45°
2026-04-28 21:43 2.59656 -76.18897 33163 ft 505 kts 44°
2026-04-28 21:43 2.62213 -76.16473 33252 ft 507 kts 44°
2026-04-28 21:43 2.64769 -76.14050 33383 ft 507 kts 44°
2026-04-28 21:43 2.67327 -76.11625 33545 ft 506 kts 44°
2026-04-28 21:44 2.69876 -76.09210 33760 ft 505 kts 44°
2026-04-28 21:44 2.72427 -76.06792 33902 ft 505 kts 44°
2026-04-28 21:44 2.74973 -76.04379 34092 ft 504 kts 44°
2026-04-28 21:44 2.77515 -76.01969 34252 ft 503 kts 44°
2026-04-28 21:45 2.80053 -75.99563 34397 ft 503 kts 44°
2026-04-28 21:45 2.82589 -75.97158 34589 ft 502 kts 44°
2026-04-28 21:45 2.85125 -75.94753 34744 ft 502 kts 44°
2026-04-28 21:45 2.87660 -75.92350 34876 ft 501 kts 44°
2026-04-28 21:46 2.90188 -75.89953 35039 ft 501 kts 44°
2026-04-28 21:46 2.92717 -75.87554 35188 ft 501 kts 44°
2026-04-28 21:46 2.95240 -75.85161 35354 ft 500 kts 44°
2026-04-28 21:46 2.97768 -75.82763 35483 ft 500 kts 44°
2026-04-28 21:47 3.00294 -75.80368 35627 ft 501 kts 44°
2026-04-28 21:47 3.02781 -75.78008 35715 ft 500 kts 44°
2026-04-28 21:47 3.07853 -75.73196 35909 ft 502 kts 44°
2026-04-28 21:48 3.10387 -75.70791 36024 ft 503 kts 44°
2026-04-28 21:48 3.12922 -75.68386 36048 ft 502 kts 44°
2026-04-28 21:48 3.17990 -75.63576 35981 ft 502 kts 44°
2026-04-28 21:49 3.23056 -75.58767 35981 ft 502 kts 44°
2026-04-28 21:49 3.28122 -75.53959 35972 ft 502 kts 44°
2026-04-28 21:50 3.33187 -75.49150 35923 ft 502 kts 44°
2026-04-28 21:50 3.38240 -75.44352 35922 ft 502 kts 44°
2026-04-28 21:51 3.43312 -75.39535 35924 ft 502 kts 43°
2026-04-28 21:51 3.48382 -75.34719 35899 ft 503 kts 43°
2026-04-28 21:52 3.53453 -75.29902 35898 ft 503 kts 43°
2026-04-28 21:52 3.58524 -75.25083 35897 ft 503 kts 43°
2026-04-28 21:53 3.63597 -75.20263 35894 ft 503 kts 44°
2026-04-28 21:53 3.68665 -75.15446 35891 ft 503 kts 44°
2026-04-28 21:54 3.73734 -75.10627 35884 ft 502 kts 44°
2026-04-28 21:54 3.78793 -75.05817 35903 ft 502 kts 44°
2026-04-28 21:55 3.83859 -75.00999 35890 ft 502 kts 44°
2026-04-28 21:55 3.88916 -74.96190 35890 ft 502 kts 44°
2026-04-28 21:56 3.93980 -74.91372 35887 ft 502 kts 44°
2026-04-28 21:56 3.99039 -74.86560 35882 ft 502 kts 44°
2026-04-28 21:57 4.04099 -74.81745 35880 ft 502 kts 44°
2026-04-28 21:57 4.09080 -74.77004 35907 ft 501 kts 43°
2026-04-28 21:58 4.14210 -74.72120 35895 ft 501 kts 43°
2026-04-28 21:58 4.19231 -74.67340 35894 ft 501 kts 43°
2026-04-28 21:59 4.24285 -74.62527 35825 ft 501 kts 43°
2026-04-28 22:00 4.31863 -74.55309 35866 ft 501 kts 43°
2026-04-28 22:00 4.36917 -74.50494 35900 ft 501 kts 43°
2026-04-28 22:01 4.41971 -74.45677 35991 ft 501 kts 43°
2026-04-28 22:01 4.46199 -74.41647 35990 ft 501 kts 43°
2026-04-28 22:02 4.51245 -74.36837 36068 ft 501 kts 43°
2026-04-28 22:02 4.56271 -74.32046 36166 ft 505 kts 44°
2026-04-28 22:03 4.61378 -74.27177 36230 ft 507 kts 44°
2026-04-28 22:03 4.66483 -74.22307 36291 ft 507 kts 44°
2026-04-28 22:04 4.71595 -74.17431 36292 ft 507 kts 44°
2026-04-28 22:04 4.76698 -74.12561 36294 ft 507 kts 44°
2026-04-28 22:05 4.81794 -74.07696 36290 ft 505 kts 44°
2026-04-28 22:05 4.84341 -74.05264 36070 ft 504 kts 44°
2026-04-28 22:05 4.86881 -74.02839 36069 ft 504 kts 44°
2026-04-28 22:06 4.91963 -73.97989 36072 ft 506 kts 44°
2026-04-28 22:06 4.97079 -73.93102 36079 ft 509 kts 44°
2026-04-28 22:07 5.02203 -73.88208 36080 ft 509 kts 44°
2026-04-28 22:07 5.07325 -73.83313 36075 ft 509 kts 44°
2026-04-28 22:08 5.12448 -73.78416 36076 ft 509 kts 44°
2026-04-28 22:08 5.17531 -73.73557 36075 ft 507 kts 44°
2026-04-28 22:09 5.22640 -73.68673 36072 ft 507 kts 44°
2026-04-28 22:09 5.27742 -73.63793 36062 ft 507 kts 44°
2026-04-28 22:10 5.32869 -73.58887 36064 ft 510 kts 44°
2026-04-28 22:10 5.38007 -73.53972 36066 ft 510 kts 44°
2026-04-28 22:11 5.43139 -73.49061 36067 ft 510 kts 44°
2026-04-28 22:11 5.48276 -73.44144 36071 ft 510 kts 43°
2026-04-28 22:12 5.53389 -73.39247 36061 ft 506 kts 43°
2026-04-28 22:12 5.58476 -73.34375 36057 ft 505 kts 43°
2026-04-28 22:13 5.63564 -73.29500 36060 ft 506 kts 43°
2026-04-28 22:13 5.68660 -73.24616 36059 ft 507 kts 43°
2026-04-28 22:14 5.73769 -73.19719 36048 ft 508 kts 43°
2026-04-28 22:14 5.78879 -73.14820 36047 ft 508 kts 43°
2026-04-28 22:15 5.83982 -73.09925 36037 ft 508 kts 43°
2026-04-28 22:15 5.89098 -73.05017 36049 ft 508 kts 43°
2026-04-28 22:16 5.94205 -73.00117 36045 ft 508 kts 43°
2026-04-28 22:16 5.99288 -72.95244 36037 ft 508 kts 43°
2026-04-28 22:17 6.04407 -72.90329 36052 ft 510 kts 43°
2026-04-28 22:17 6.09529 -72.85407 36051 ft 510 kts 43°
2026-04-28 22:18 6.14657 -72.80481 36059 ft 510 kts 43°
2026-04-28 22:18 6.19782 -72.75556 36058 ft 509 kts 43°
2026-04-28 22:19 6.24892 -72.70643 36051 ft 507 kts 43°
2026-04-28 22:19 6.29997 -72.65737 36079 ft 507 kts 43°
2026-04-28 22:20 6.35094 -72.60835 36079 ft 507 kts 43°
2026-04-28 22:20 6.40203 -72.55921 36086 ft 509 kts 43°
2026-04-28 22:21 6.45326 -72.50991 36108 ft 510 kts 43°
2026-04-28 22:21 6.50448 -72.46061 36107 ft 510 kts 43°
2026-04-28 22:22 6.55577 -72.41123 36110 ft 511 kts 43°
2026-04-28 22:22 6.60714 -72.36175 36107 ft 511 kts 43°
2026-04-28 22:23 6.65847 -72.31228 36105 ft 511 kts 43°
2026-04-28 22:23 6.70983 -72.26274 36085 ft 511 kts 43°
2026-04-28 22:24 6.76117 -72.21328 36050 ft 511 kts 43°
2026-04-28 22:24 6.81249 -72.16381 36005 ft 511 kts 43°
2026-04-28 22:25 6.86376 -72.11438 35931 ft 510 kts 43°
2026-04-28 22:25 6.91469 -72.06525 35909 ft 511 kts 43°
2026-04-28 22:26 6.96599 -72.01573 35881 ft 511 kts 43°
2026-04-28 22:26 7.01724 -71.96625 35865 ft 511 kts 43°
2026-04-28 22:27 7.06680 -71.91496 35921 ft 511 kts 47°
2026-04-28 22:27 7.11441 -71.86193 35923 ft 511 kts 47°
2026-04-28 22:28 7.16224 -71.80895 35909 ft 511 kts 47°
2026-04-28 22:28 7.21040 -71.75635 35913 ft 511 kts 47°
2026-04-28 22:29 7.25885 -71.70373 35904 ft 514 kts 47°
2026-04-28 22:29 7.30748 -71.65093 35900 ft 514 kts 47°
2026-04-28 22:30 7.35615 -71.59804 35902 ft 514 kts 47°
2026-04-28 22:30 7.40473 -71.54520 35897 ft 514 kts 46°
2026-04-28 22:31 7.45333 -71.49232 35898 ft 514 kts 46°
2026-04-28 22:31 7.50188 -71.43948 35903 ft 514 kts 46°
2026-04-28 22:32 7.55042 -71.38663 35903 ft 514 kts 46°
2026-04-28 22:32 7.59898 -71.33374 35902 ft 513 kts 46°
2026-04-28 22:33 7.64745 -71.28093 35905 ft 513 kts 46°
2026-04-28 22:33 7.69593 -71.22809 35905 ft 513 kts 46°
2026-04-28 22:34 7.74441 -71.17523 35908 ft 513 kts 46°
2026-04-28 22:34 7.79283 -71.12241 35913 ft 513 kts 46°
2026-04-28 22:35 7.84131 -71.06951 35916 ft 513 kts 46°
2026-04-28 22:35 7.88977 -71.01662 35903 ft 513 kts 46°
2026-04-28 22:36 7.93825 -70.96367 35919 ft 514 kts 46°
2026-04-28 22:36 7.98673 -70.91071 35919 ft 514 kts 46°
2026-04-28 22:37 8.03520 -70.85775 35926 ft 514 kts 46°
2026-04-28 22:37 8.08358 -70.80486 35924 ft 513 kts 46°
2026-04-28 22:38 8.13198 -70.75193 35928 ft 513 kts 46°
2026-04-28 22:38 8.18030 -70.69906 35927 ft 513 kts 46°
2026-04-28 22:39 8.22831 -70.64652 35924 ft 513 kts 46°
2026-04-28 22:39 8.27675 -70.59350 35906 ft 514 kts 46°
2026-04-28 22:40 8.32525 -70.54038 35921 ft 515 kts 46°
2026-04-28 22:40 8.37377 -70.48721 35922 ft 514 kts 46°
2026-04-28 22:41 8.42220 -70.43413 35909 ft 514 kts 46°
2026-04-28 22:41 8.47062 -70.38103 35922 ft 514 kts 46°
2026-04-28 22:42 8.51904 -70.32791 35907 ft 514 kts 46°
2026-04-28 22:42 8.56747 -70.27475 35921 ft 514 kts 46°
2026-04-28 22:43 8.61585 -70.22165 35923 ft 513 kts 47°
2026-04-28 22:43 8.66367 -70.16811 35908 ft 512 kts 48°
2026-04-28 22:44 8.71071 -70.11404 35921 ft 512 kts 48°
2026-04-28 22:44 8.75770 -70.06008 35907 ft 512 kts 48°
2026-04-28 22:45 8.80487 -70.00617 35905 ft 512 kts 48°
2026-04-28 22:45 8.85207 -69.95231 35925 ft 512 kts 48°
2026-04-28 22:46 8.89927 -69.89844 35910 ft 512 kts 47°
2026-04-28 22:46 8.94647 -69.84453 35909 ft 513 kts 47°
2026-04-28 22:47 8.99380 -69.79046 35913 ft 513 kts 47°
2026-04-28 22:47 9.04106 -69.73644 35914 ft 513 kts 47°
2026-04-28 22:48 9.08839 -69.68230 35912 ft 513 kts 47°
2026-04-28 22:48 9.12773 -69.63730 35913 ft 513 kts 47°
2026-04-28 22:49 9.17502 -69.58317 35915 ft 513 kts 48°
2026-04-28 22:49 9.22229 -69.52905 35914 ft 513 kts 48°
2026-04-28 22:50 9.26960 -69.47486 35920 ft 514 kts 48°
2026-04-28 22:50 9.31695 -69.42059 35919 ft 514 kts 48°
2026-04-28 22:51 9.36430 -69.36630 35919 ft 514 kts 48°
2026-04-28 22:51 9.41167 -69.31197 35919 ft 514 kts 48°
2026-04-28 22:52 9.45901 -69.25764 35906 ft 514 kts 48°
2026-04-28 22:52 9.50635 -69.20329 35916 ft 514 kts 48°
2026-04-28 22:53 9.55358 -69.14902 35918 ft 513 kts 47°
2026-04-28 22:53 9.60090 -69.09465 35904 ft 515 kts 47°
2026-04-28 22:54 9.64800 -69.04052 35911 ft 516 kts 47°
2026-04-28 22:54 9.69549 -68.98596 35908 ft 516 kts 47°
2026-04-28 22:55 9.74296 -68.93142 35919 ft 516 kts 47°
2026-04-28 22:55 9.79037 -68.87690 35919 ft 516 kts 47°
2026-04-28 22:56 9.83785 -68.82229 35922 ft 516 kts 48°
2026-04-28 22:56 9.88528 -68.76770 35934 ft 516 kts 47°
2026-04-28 22:57 9.93297 -68.71280 35934 ft 520 kts 47°
2026-04-28 22:57 9.98077 -68.65773 35935 ft 520 kts 47°
2026-04-28 22:58 10.02861 -68.60260 35942 ft 520 kts 47°
2026-04-28 22:58 10.07652 -68.54749 35948 ft 521 kts 47°
2026-04-28 22:59 10.12443 -68.49243 35951 ft 520 kts 47°
2026-04-28 22:59 10.17224 -68.43745 35947 ft 519 kts 47°
2026-04-28 23:00 10.22007 -68.38241 35946 ft 519 kts 47°
2026-04-28 23:00 10.26786 -68.32736 35943 ft 520 kts 47°
2026-04-28 23:01 10.31563 -68.27234 35946 ft 520 kts 47°
2026-04-28 23:01 10.36346 -68.21720 35942 ft 520 kts 47°
2026-04-28 23:02 10.41120 -68.16214 35941 ft 519 kts 47°
2026-04-28 23:02 10.45895 -68.10708 35940 ft 519 kts 47°
2026-04-28 23:03 10.50674 -68.05198 35940 ft 519 kts 47°
2026-04-28 23:03 10.55449 -67.99723 35933 ft 516 kts 47°
2026-04-28 23:04 10.60207 -67.94272 35934 ft 515 kts 47°
2026-04-28 23:04 10.67332 -67.86085 35928 ft 515 kts 48°
2026-04-28 23:05 10.72005 -67.80548 35924 ft 516 kts 49°
2026-04-28 23:05 10.76647 -67.74998 35922 ft 516 kts 49°
2026-04-28 23:06 10.81304 -67.69448 35919 ft 516 kts 48°
2026-04-28 23:06 10.85971 -67.63903 35920 ft 516 kts 49°
2026-04-28 23:07 10.90613 -67.58401 35922 ft 516 kts 49°
2026-04-28 23:07 10.95306 -67.52814 35922 ft 516 kts 49°
2026-04-28 23:08 10.99960 -67.47267 35919 ft 516 kts 49°
2026-04-28 23:08 11.04496 -67.41656 35923 ft 516 kts 50°
2026-04-28 23:09 11.08992 -67.35961 35925 ft 516 kts 50°
2026-04-28 23:09 11.13497 -67.30277 35929 ft 516 kts 50°
2026-04-28 23:10 11.18030 -67.24591 35922 ft 518 kts 50°
2026-04-28 23:10 11.22577 -67.18894 35922 ft 518 kts 50°
2026-04-28 23:11 11.27127 -67.13193 35925 ft 518 kts 50°
2026-04-28 23:11 11.31661 -67.07491 35925 ft 518 kts 50°
2026-04-28 23:12 11.36198 -67.01781 35927 ft 518 kts 50°
2026-04-28 23:12 11.40732 -66.96075 35928 ft 518 kts 50°
2026-04-28 23:13 11.45269 -66.90369 35928 ft 518 kts 50°
2026-04-28 23:13 11.49821 -66.84649 35928 ft 521 kts 50°
2026-04-28 23:14 11.54387 -66.78901 35930 ft 521 kts 50°
2026-04-28 23:14 11.58953 -66.73155 35933 ft 521 kts 50°
2026-04-28 23:15 11.63482 -66.67443 35936 ft 521 kts 50°
2026-04-28 23:15 11.68031 -66.61691 35936 ft 521 kts 50°
2026-04-28 23:16 11.72589 -66.55932 35936 ft 521 kts 49°
2026-04-28 23:16 11.77135 -66.50191 35941 ft 520 kts 49°
2026-04-28 23:17 11.81681 -66.44448 35938 ft 520 kts 49°
2026-04-28 23:17 11.86225 -66.38706 35939 ft 520 kts 49°
2026-04-28 23:18 11.90771 -66.32956 35941 ft 520 kts 49°
2026-04-28 23:18 11.95313 -66.27208 35941 ft 520 kts 49°
2026-04-28 23:19 11.99850 -66.21462 35944 ft 518 kts 49°
2026-04-28 23:19 12.04361 -66.15746 35944 ft 516 kts 49°
2026-04-28 23:20 12.08878 -66.10020 35947 ft 519 kts 49°
2026-04-28 23:20 12.13414 -66.04267 35949 ft 520 kts 49°
2026-04-28 23:21 12.17952 -65.98506 35949 ft 520 kts 49°
2026-04-28 23:21 12.22491 -65.92741 35949 ft 520 kts 49°
2026-04-28 23:22 12.27023 -65.86981 35952 ft 519 kts 49°
2026-04-28 23:22 12.31545 -65.81230 35952 ft 519 kts 49°
2026-04-28 23:23 12.36065 -65.75478 35956 ft 519 kts 49°
2026-04-28 23:23 12.40587 -65.69720 35952 ft 520 kts 49°
2026-04-28 23:24 12.45118 -65.63948 35952 ft 520 kts 49°
2026-04-28 23:24 12.49645 -65.58178 35955 ft 519 kts 49°
2026-04-28 23:25 12.54158 -65.52421 35958 ft 518 kts 49°
2026-04-28 23:25 12.58672 -65.46659 35960 ft 518 kts 49°
2026-04-28 23:26 12.63182 -65.40900 35961 ft 518 kts 49°
2026-04-28 23:26 12.67687 -65.35142 35960 ft 518 kts 49°
2026-04-28 23:27 12.72195 -65.29377 35960 ft 518 kts 49°
2026-04-28 23:27 12.76697 -65.23617 35963 ft 518 kts 49°
2026-04-28 23:28 12.81193 -65.17860 35966 ft 518 kts 49°
2026-04-28 23:28 12.85661 -65.12135 35968 ft 518 kts 49°
2026-04-28 23:29 12.90156 -65.06372 35969 ft 518 kts 49°
2026-04-28 23:29 12.94650 -65.00608 35971 ft 518 kts 49°
2026-04-28 23:30 12.99153 -64.94828 35970 ft 518 kts 49°
2026-04-28 23:30 13.03644 -64.89058 35971 ft 518 kts 49°
2026-04-28 23:31 13.08136 -64.83285 35971 ft 517 kts 49°
2026-04-28 23:31 13.12625 -64.77512 35971 ft 517 kts 49°
2026-04-28 23:32 13.17109 -64.71740 35977 ft 517 kts 49°
2026-04-28 23:32 13.21595 -64.65964 35977 ft 517 kts 49°
2026-04-28 23:33 13.26077 -64.60186 35977 ft 517 kts 49°
2026-04-28 23:33 13.30559 -64.54400 35979 ft 517 kts 49°
2026-04-28 23:34 13.35037 -64.48618 35982 ft 517 kts 50°
2026-04-28 23:34 13.39513 -64.42835 35982 ft 517 kts 50°
2026-04-28 23:35 13.43239 -64.38023 35982 ft 517 kts 49°
2026-04-28 23:35 13.47715 -64.32238 35982 ft 517 kts 49°
2026-04-28 23:36 13.52192 -64.26441 35983 ft 518 kts 49°
2026-04-28 23:36 13.56676 -64.20633 35980 ft 519 kts 49°
2026-04-28 23:37 13.61165 -64.14817 35982 ft 520 kts 49°
2026-04-28 23:37 13.65746 -64.09080 35985 ft 518 kts 46°
2026-04-28 23:38 13.70594 -64.03592 35985 ft 518 kts 45°
2026-04-28 23:38 13.75459 -63.98130 35985 ft 518 kts 45°
2026-04-28 23:39 13.80280 -63.92631 35988 ft 518 kts 45°
2026-04-28 23:39 13.85083 -63.87102 35985 ft 518 kts 45°
2026-04-28 23:40 13.89878 -63.81569 35987 ft 518 kts 45°
2026-04-28 23:40 13.94675 -63.76031 35987 ft 518 kts 45°
2026-04-28 23:41 13.99472 -63.70493 35990 ft 518 kts 45°
2026-04-28 23:41 14.04230 -63.64995 35990 ft 518 kts 45°
2026-04-28 23:42 14.09021 -63.59458 35996 ft 518 kts 45°
2026-04-28 23:42 14.13816 -63.53911 35990 ft 519 kts 45°
2026-04-28 23:43 14.18622 -63.48349 35990 ft 520 kts 45°
2026-04-28 23:43 14.23428 -63.42782 35991 ft 520 kts 45°
2026-04-28 23:44 14.28228 -63.37216 35996 ft 519 kts 45°
2026-04-28 23:44 14.33026 -63.31651 35996 ft 519 kts 45°
2026-04-28 23:45 14.37819 -63.26087 35998 ft 519 kts 45°
2026-04-28 23:45 14.42619 -63.20512 35996 ft 520 kts 45°
2026-04-28 23:46 14.47417 -63.14935 35996 ft 520 kts 45°
2026-04-28 23:46 14.52218 -63.09350 35999 ft 520 kts 45°
2026-04-28 23:47 14.57010 -63.03771 36001 ft 519 kts 45°
2026-04-28 23:47 14.61806 -62.98186 36004 ft 519 kts 45°
2026-04-28 23:48 14.66634 -62.92642 36004 ft 519 kts 45°
2026-04-28 23:48 14.71504 -62.87119 36004 ft 520 kts 45°
2026-04-28 23:49 14.76371 -62.81587 36003 ft 520 kts 45°
2026-04-28 23:49 14.81228 -62.76048 36004 ft 520 kts 45°
2026-04-28 23:50 14.86082 -62.70504 36004 ft 520 kts 45°
2026-04-28 23:50 14.90936 -62.64955 36008 ft 520 kts 45°
2026-04-28 23:51 14.95795 -62.59397 36012 ft 521 kts 45°
2026-04-28 23:51 15.00657 -62.53833 36014 ft 522 kts 45°
2026-04-28 23:52 15.05528 -62.48254 36013 ft 522 kts 46°
2026-04-28 23:52 15.10396 -62.42674 36015 ft 523 kts 46°
2026-04-28 23:53 15.15234 -62.37124 36015 ft 523 kts 46°
2026-04-28 23:53 15.20103 -62.31534 36021 ft 523 kts 45°
2026-04-28 23:54 15.24971 -62.25941 36018 ft 523 kts 45°
2026-04-28 23:54 15.29843 -62.20340 36016 ft 523 kts 46°
2026-04-28 23:55 15.34716 -62.14734 36018 ft 524 kts 46°
2026-04-28 23:55 15.39591 -62.09121 36018 ft 524 kts 46°
2026-04-28 23:56 15.44469 -62.03500 36018 ft 524 kts 46°
2026-04-28 23:56 15.49343 -61.97879 36019 ft 524 kts 46°
2026-04-28 23:57 15.54216 -61.92255 36026 ft 525 kts 46°
2026-04-28 23:57 15.59094 -61.86621 36023 ft 525 kts 46°
2026-04-28 23:58 15.63970 -61.80985 36029 ft 525 kts 46°
2026-04-28 23:58 15.68850 -61.75341 36029 ft 525 kts 46°
2026-04-28 23:59 15.73723 -61.69700 36036 ft 525 kts 46°
2026-04-28 23:59 15.78602 -61.64047 36034 ft 526 kts 46°
2026-04-29 00:00 15.83481 -61.58390 36037 ft 526 kts 46°
2026-04-29 00:00 15.88362 -61.52727 36046 ft 526 kts 46°
2026-04-29 00:01 15.93211 -61.47097 36042 ft 526 kts 46°
2026-04-29 00:01 15.98068 -61.41410 36039 ft 526 kts 46°
2026-04-29 00:02 16.02910 -61.35705 36040 ft 526 kts 46°
2026-04-29 00:02 16.07749 -61.30005 36032 ft 526 kts 46°
2026-04-29 00:03 16.12595 -61.24299 36031 ft 526 kts 46°
2026-04-29 00:03 16.17442 -61.18590 36033 ft 526 kts 46°
2026-04-29 00:04 16.22286 -61.12880 36034 ft 526 kts 46°
2026-04-29 00:04 16.27129 -61.07166 36045 ft 526 kts 46°
2026-04-29 00:05 16.31971 -61.01449 36039 ft 527 kts 46°
2026-04-29 00:05 16.36818 -60.95722 36047 ft 527 kts 46°
2026-04-29 00:06 16.41667 -60.89986 36048 ft 527 kts 46°
2026-04-29 00:06 16.46515 -60.84248 36048 ft 527 kts 46°
2026-04-29 00:07 16.51355 -60.78514 36048 ft 527 kts 46°
2026-04-29 00:07 16.56198 -60.72772 36049 ft 528 kts 46°
2026-04-29 00:08 16.61044 -60.67022 36050 ft 528 kts 46°
2026-04-29 00:08 16.65889 -60.61268 36050 ft 528 kts 46°
2026-04-29 00:09 16.70735 -60.55511 36052 ft 528 kts 46°
2026-04-29 00:09 16.75544 -60.49789 36055 ft 528 kts 46°
2026-04-29 00:10 16.80383 -60.44025 36054 ft 528 kts 46°
2026-04-29 00:10 16.85224 -60.38257 36054 ft 528 kts 46°
2026-04-29 00:11 16.90068 -60.32481 36056 ft 528 kts 46°
2026-04-29 00:12 16.97325 -60.23816 36057 ft 528 kts 46°
2026-04-29 00:12 17.02160 -60.18037 36060 ft 528 kts 46°
2026-04-29 00:13 17.06997 -60.12253 36060 ft 528 kts 46°
2026-04-29 00:13 17.11831 -60.06465 36059 ft 528 kts 46°
2026-04-29 00:14 17.16661 -60.00678 36061 ft 528 kts 46°
2026-04-29 00:14 17.21493 -59.94883 36063 ft 528 kts 47°
2026-04-29 00:15 17.26325 -59.89083 36063 ft 528 kts 47°
2026-04-29 00:15 17.31152 -59.83285 36070 ft 529 kts 47°
2026-04-29 00:16 17.35983 -59.77476 36064 ft 529 kts 47°
2026-04-29 00:16 17.40816 -59.71660 36068 ft 529 kts 47°
2026-04-29 00:17 17.45646 -59.65842 36068 ft 529 kts 47°
2026-04-29 00:17 17.50476 -59.60019 36065 ft 529 kts 47°
2026-04-29 00:18 17.55270 -59.54235 36074 ft 529 kts 47°
2026-04-29 00:18 17.60098 -59.48404 36079 ft 530 kts 47°
2026-04-29 00:19 17.64929 -59.42565 36078 ft 530 kts 47°
2026-04-29 00:19 17.69760 -59.36720 36077 ft 530 kts 47°
2026-04-29 00:20 17.74589 -59.30873 36077 ft 530 kts 47°
2026-04-29 00:20 17.79416 -59.25022 36088 ft 531 kts 47°
2026-04-29 00:21 17.84252 -59.19156 36070 ft 532 kts 47°
2026-04-29 00:21 17.89098 -59.13273 36075 ft 532 kts 47°
2026-04-29 00:22 17.93935 -59.07394 36070 ft 532 kts 47°
2026-04-29 00:22 17.98737 -59.01486 36070 ft 533 kts 51°
2026-04-29 00:23 18.02678 -58.94880 36068 ft 534 kts 59°
2026-04-29 00:23 18.05659 -58.89192 36079 ft 536 kts 61°
2026-04-29 00:24 18.09187 -58.82278 36078 ft 537 kts 61°
2026-04-29 00:24 18.12721 -58.75358 36078 ft 537 kts 61°
2026-04-29 00:25 18.16268 -58.68445 36082 ft 537 kts 61°
2026-04-29 00:25 18.19823 -58.61526 36083 ft 537 kts 61°
2026-04-29 00:26 18.23371 -58.54616 36083 ft 537 kts 61°
2026-04-29 00:26 18.26921 -58.47691 36080 ft 538 kts 61°
2026-04-29 00:27 18.30472 -58.40759 36083 ft 538 kts 61°
2026-04-29 00:27 18.34020 -58.33821 36085 ft 538 kts 61°
2026-04-29 00:28 18.37568 -58.26877 36085 ft 538 kts 61°
2026-04-29 00:28 18.41087 -58.19980 36086 ft 538 kts 61°
2026-04-29 00:29 18.44628 -58.13035 36084 ft 538 kts 61°
2026-04-29 00:29 18.48167 -58.06084 36087 ft 538 kts 61°
2026-04-29 00:30 18.51700 -57.99137 36095 ft 538 kts 61°
2026-04-29 00:30 18.55234 -57.92182 36088 ft 538 kts 61°
2026-04-29 00:31 18.58763 -57.85228 36093 ft 537 kts 61°
2026-04-29 00:31 18.62284 -57.78281 36091 ft 537 kts 61°
2026-04-29 00:32 18.65803 -57.71331 36093 ft 537 kts 61°
2026-04-29 00:32 18.69322 -57.64372 36093 ft 538 kts 61°
2026-04-29 00:33 18.72841 -57.57406 36090 ft 538 kts 61°
2026-04-29 00:33 18.76362 -57.50429 36090 ft 538 kts 61°
2026-04-29 00:34 18.79877 -57.43455 36089 ft 538 kts 61°
2026-04-29 00:34 18.83392 -57.36472 36091 ft 538 kts 61°
2026-04-29 00:35 18.86900 -57.29496 36093 ft 537 kts 61°
2026-04-29 00:35 18.90401 -57.22525 36098 ft 538 kts 61°
2026-04-29 00:36 18.93912 -57.15527 36097 ft 540 kts 61°
2026-04-29 00:36 18.97425 -57.08516 36096 ft 540 kts 61°
2026-04-29 00:37 19.00931 -57.01510 36096 ft 539 kts 61°
2026-04-29 00:37 19.04433 -56.94504 36097 ft 539 kts 61°
2026-04-29 00:38 19.07933 -56.87496 36100 ft 539 kts 61°
2026-04-29 00:38 19.11429 -56.80485 36099 ft 540 kts 61°
2026-04-29 00:39 19.14908 -56.73502 36103 ft 540 kts 61°
2026-04-29 00:39 19.18407 -56.66469 36103 ft 540 kts 61°
2026-04-29 00:40 19.21906 -56.59427 36100 ft 540 kts 61°
2026-04-29 00:40 19.25401 -56.52387 36100 ft 540 kts 61°
2026-04-29 00:41 19.28890 -56.45350 36103 ft 540 kts 61°
2026-04-29 00:41 19.32384 -56.38293 36104 ft 542 kts 61°
2026-04-29 00:42 19.35882 -56.31221 36103 ft 543 kts 61°
2026-04-29 00:42 19.39380 -56.24139 36107 ft 542 kts 61°
2026-04-29 00:43 19.42870 -56.17066 36103 ft 542 kts 61°
2026-04-29 00:43 19.46354 -56.09994 36104 ft 542 kts 61°
2026-04-29 00:44 19.49838 -56.02917 36113 ft 542 kts 61°
2026-04-29 00:44 19.53332 -55.95809 36107 ft 544 kts 61°
2026-04-29 00:45 19.56828 -55.88688 36108 ft 545 kts 62°
2026-04-29 00:45 19.60322 -55.81564 36108 ft 545 kts 62°
2026-04-29 00:46 19.63788 -55.74486 36108 ft 544 kts 62°
2026-04-29 00:46 19.67294 -55.67319 36111 ft 543 kts 62°
2026-04-29 00:47 19.70774 -55.60196 36106 ft 545 kts 62°
2026-04-29 00:47 19.74264 -55.53044 36114 ft 546 kts 62°
2026-04-29 00:48 19.77732 -55.45927 36112 ft 546 kts 62°
2026-04-29 00:48 19.81239 -55.38723 36111 ft 545 kts 62°
2026-04-29 00:49 19.84692 -55.31619 36113 ft 545 kts 62°
2026-04-29 00:49 19.88171 -55.24453 36127 ft 545 kts 62°
2026-04-29 00:50 19.91650 -55.17279 36114 ft 547 kts 62°
2026-04-29 00:50 19.95132 -55.10089 36115 ft 547 kts 62°
2026-04-29 00:51 19.98612 -55.02893 36114 ft 547 kts 62°
2026-04-29 00:51 20.02531 -54.95976 36116 ft 545 kts 55°
2026-04-29 00:52 20.06710 -54.89241 36119 ft 545 kts 54°
2026-04-29 00:52 20.10927 -54.82535 36119 ft 547 kts 54°
2026-04-29 00:53 20.15157 -54.75793 36115 ft 548 kts 54°
2026-04-29 00:53 20.19369 -54.69050 36115 ft 547 kts 54°
2026-04-29 00:54 20.23578 -54.62297 36123 ft 547 kts 54°
2026-04-29 00:54 20.27779 -54.55549 36130 ft 547 kts 54°
2026-04-29 00:55 20.31989 -54.48780 36114 ft 548 kts 54°
2026-04-29 00:55 20.36194 -54.42012 36121 ft 548 kts 54°
2026-04-29 00:56 20.40399 -54.35235 36123 ft 548 kts 54°
2026-04-29 00:56 20.44598 -54.28460 36119 ft 548 kts 54°
2026-04-29 00:57 20.48798 -54.21676 36123 ft 548 kts 54°
2026-04-29 00:57 20.52991 -54.14893 36126 ft 547 kts 54°
2026-04-29 00:58 20.57180 -54.08112 36124 ft 547 kts 54°
2026-04-29 00:58 20.61370 -54.01319 36125 ft 548 kts 54°
2026-04-29 00:59 20.65522 -53.94581 36126 ft 547 kts 54°
2026-04-29 00:59 20.69710 -53.87775 36128 ft 548 kts 54°
2026-04-29 01:00 20.73894 -53.80967 36125 ft 548 kts 54°
2026-04-29 01:00 20.78083 -53.74145 36127 ft 549 kts 54°
2026-04-29 01:01 20.82263 -53.67329 36124 ft 548 kts 54°
2026-04-29 01:01 20.86440 -53.60508 36144 ft 548 kts 54°
2026-04-29 01:02 20.90619 -53.53676 36125 ft 550 kts 54°
2026-04-29 01:02 20.94806 -53.46824 36131 ft 550 kts 54°
2026-04-29 01:03 20.98987 -53.39974 36134 ft 550 kts 54°
2026-04-29 01:03 21.03171 -53.33110 36128 ft 550 kts 54°
2026-04-29 01:04 21.07347 -53.26248 36126 ft 550 kts 54°
2026-04-29 01:04 21.11524 -53.19379 36129 ft 550 kts 54°
2026-04-29 01:05 21.15694 -53.12512 36128 ft 550 kts 54°
2026-04-29 01:05 21.19866 -53.05635 36142 ft 550 kts 54°
2026-04-29 01:06 21.24031 -52.98759 36139 ft 550 kts 54°
2026-04-29 01:06 21.28194 -52.91877 36129 ft 550 kts 54°
2026-04-29 01:07 21.32348 -52.85002 36129 ft 550 kts 54°
2026-04-29 01:07 21.36479 -52.78158 36130 ft 550 kts 54°
2026-04-29 01:08 21.40629 -52.71274 36130 ft 550 kts 54°
2026-04-29 01:08 21.44780 -52.64379 36130 ft 550 kts 54°
2026-04-29 01:09 21.48938 -52.57466 36130 ft 552 kts 54°
2026-04-29 01:09 21.53098 -52.50538 36126 ft 552 kts 54°
2026-04-29 01:10 21.57246 -52.43621 36132 ft 551 kts 54°
2026-04-29 01:10 21.61391 -52.36701 36140 ft 551 kts 54°
2026-04-29 01:11 21.65543 -52.29763 36134 ft 552 kts 54°
2026-04-29 01:11 21.69692 -52.22819 36132 ft 552 kts 54°
2026-04-29 01:12 21.73139 -52.17043 36131 ft 552 kts 54°
2026-04-29 01:12 21.77282 -52.10093 36129 ft 552 kts 54°
2026-04-29 01:13 21.81420 -52.03143 36129 ft 552 kts 54°
2026-04-29 01:13 21.85563 -51.96176 36135 ft 552 kts 54°
2026-04-29 01:14 21.89705 -51.89200 36135 ft 552 kts 54°
2026-04-29 01:14 21.93836 -51.82235 36135 ft 552 kts 54°
2026-04-29 01:15 21.97971 -51.75254 36140 ft 552 kts 54°
2026-04-29 01:15 22.02103 -51.68269 36138 ft 553 kts 54°
2026-04-29 01:16 22.06234 -51.61276 36140 ft 553 kts 54°
2026-04-29 01:16 22.10367 -51.54270 36140 ft 553 kts 54°
2026-04-29 01:17 22.14490 -51.47272 36154 ft 553 kts 54°
2026-04-29 01:17 22.18611 -51.40271 36137 ft 553 kts 54°
2026-04-29 01:18 22.22736 -51.33251 36135 ft 554 kts 54°
2026-04-29 01:18 22.28916 -51.22718 36138 ft 553 kts 54°
2026-04-29 01:19 22.33027 -51.15699 36137 ft 553 kts 54°
2026-04-29 01:19 22.37113 -51.08714 36137 ft 553 kts 54°
2026-04-29 01:20 22.41222 -51.01682 36138 ft 553 kts 54°
2026-04-29 01:20 22.45327 -50.94644 36138 ft 554 kts 54°
2026-04-29 01:21 22.49431 -50.87600 36141 ft 554 kts 54°
2026-04-29 01:21 22.53537 -50.80544 36138 ft 554 kts 54°
2026-04-29 01:22 22.57639 -50.73485 36137 ft 554 kts 54°
2026-04-29 01:22 22.61742 -50.66414 36138 ft 554 kts 54°
2026-04-29 01:23 22.65839 -50.59344 36153 ft 554 kts 54°
2026-04-29 01:23 22.69932 -50.52271 36138 ft 555 kts 54°
2026-04-29 01:24 22.74028 -50.45186 36137 ft 555 kts 54°
2026-04-29 01:24 22.78119 -50.38097 36136 ft 555 kts 54°
2026-04-29 01:25 22.82201 -50.31013 36157 ft 554 kts 54°
2026-04-29 01:25 22.86288 -50.23913 36140 ft 555 kts 54°
2026-04-29 01:26 22.90375 -50.16803 36141 ft 555 kts 54°
2026-04-29 01:26 22.94429 -50.09741 36143 ft 555 kts 54°
2026-04-29 01:27 22.98530 -50.02586 36158 ft 555 kts 54°
2026-04-29 01:27 23.02674 -49.95597 36142 ft 554 kts 51°
2026-04-29 01:28 23.07217 -49.88861 36144 ft 552 kts 49°
2026-04-29 01:28 23.11797 -49.82169 36145 ft 552 kts 49°
2026-04-29 01:29 23.16328 -49.75414 36150 ft 553 kts 50°
2026-04-29 01:29 23.20821 -49.68630 36142 ft 553 kts 50°
2026-04-29 01:30 23.25308 -49.61827 36145 ft 553 kts 50°
2026-04-29 01:30 23.29793 -49.55022 36146 ft 553 kts 50°
2026-04-29 01:31 23.34275 -49.48218 36143 ft 553 kts 50°
2026-04-29 01:31 23.38754 -49.41409 36142 ft 553 kts 50°
2026-04-29 01:32 23.43230 -49.34598 36143 ft 553 kts 50°
2026-04-29 01:32 23.47707 -49.27776 36140 ft 553 kts 50°
2026-04-29 01:33 23.52175 -49.20957 36135 ft 553 kts 50°
2026-04-29 01:33 23.56641 -49.14132 36131 ft 553 kts 50°
2026-04-29 01:34 23.61105 -49.07301 36122 ft 553 kts 50°
2026-04-29 01:34 23.65565 -49.00468 36144 ft 553 kts 50°
2026-04-29 01:35 23.70021 -48.93630 36144 ft 553 kts 50°
2026-04-29 01:35 23.74472 -48.86792 36141 ft 553 kts 50°
2026-04-29 01:36 23.78920 -48.79948 36143 ft 553 kts 50°
2026-04-29 01:36 23.83366 -48.73098 36145 ft 553 kts 50°
2026-04-29 01:37 23.87784 -48.66283 36144 ft 554 kts 50°
2026-04-29 01:37 23.92232 -48.59413 36147 ft 553 kts 50°
2026-04-29 01:38 23.96667 -48.52551 36149 ft 553 kts 50°
2026-04-29 01:38 24.01100 -48.45684 36145 ft 553 kts 50°
2026-04-29 01:39 24.05526 -48.38819 36144 ft 552 kts 50°
2026-04-29 01:39 24.09948 -48.31949 36148 ft 552 kts 50°
2026-04-29 01:40 24.14371 -48.25068 36155 ft 552 kts 50°
2026-04-29 01:40 24.18784 -48.18195 36150 ft 552 kts 50°
2026-04-29 01:41 24.23192 -48.11318 36149 ft 551 kts 50°
2026-04-29 01:41 24.27592 -48.04446 36150 ft 551 kts 50°
2026-04-29 01:42 24.31994 -47.97561 36147 ft 551 kts 50°
2026-04-29 01:42 24.36389 -47.90676 36152 ft 551 kts 50°
2026-04-29 01:43 24.40780 -47.83790 36150 ft 551 kts 50°
2026-04-29 01:43 24.45168 -47.76897 36159 ft 551 kts 50°
2026-04-29 01:44 24.49556 -47.69994 36151 ft 552 kts 50°
2026-04-29 01:44 24.53949 -47.63075 36151 ft 552 kts 50°
2026-04-29 01:45 24.58333 -47.56159 36150 ft 551 kts 50°
2026-04-29 01:45 24.62716 -47.49236 36151 ft 552 kts 50°
2026-04-29 01:46 24.67104 -47.42295 36152 ft 553 kts 50°
2026-04-29 01:46 24.71486 -47.35351 36155 ft 552 kts 50°
2026-04-29 01:47 24.75862 -47.28408 36165 ft 553 kts 51°
2026-04-29 01:47 24.80249 -47.21441 36156 ft 555 kts 51°
2026-04-29 01:48 24.84610 -47.14503 36157 ft 555 kts 51°
2026-04-29 01:48 24.88992 -47.07518 36166 ft 554 kts 51°
2026-04-29 01:49 24.93377 -47.00521 36160 ft 556 kts 51°
2026-04-29 01:49 24.97766 -46.93508 36158 ft 556 kts 51°
2026-04-29 01:50 25.02149 -46.86493 36161 ft 555 kts 51°
2026-04-29 01:50 25.06526 -46.79477 36171 ft 556 kts 51°
2026-04-29 01:51 25.10911 -46.72441 36170 ft 557 kts 51°
2026-04-29 01:51 25.15293 -46.65395 36170 ft 557 kts 51°
2026-04-29 01:52 25.19675 -46.58339 36163 ft 557 kts 50°
2026-04-29 01:52 25.24059 -46.51271 36163 ft 557 kts 50°
2026-04-29 01:53 25.28433 -46.44209 36162 ft 557 kts 50°
2026-04-29 01:53 25.32802 -46.37143 36174 ft 557 kts 50°
2026-04-29 01:54 25.37170 -46.30068 36165 ft 557 kts 50°
2026-04-29 01:54 25.41539 -46.22984 36165 ft 557 kts 50°
2026-04-29 01:55 25.45871 -46.15947 36164 ft 557 kts 50°
2026-04-29 01:55 25.50226 -46.08862 36168 ft 556 kts 50°
2026-04-29 01:56 25.54575 -46.01776 36167 ft 556 kts 50°
2026-04-29 01:56 25.58919 -45.94689 36168 ft 556 kts 50°
2026-04-29 01:57 25.63256 -45.87603 36172 ft 557 kts 50°
2026-04-29 01:57 25.67606 -45.80484 36170 ft 557 kts 50°
2026-04-29 01:58 25.71946 -45.73370 36169 ft 557 kts 50°
2026-04-29 01:58 25.76283 -45.66250 36169 ft 557 kts 50°
2026-04-29 01:59 25.80614 -45.59131 36175 ft 557 kts 50°
2026-04-29 01:59 25.84943 -45.52002 36174 ft 556 kts 50°
2026-04-29 02:00 25.89268 -45.44872 36171 ft 556 kts 50°
2026-04-29 02:00 25.92859 -45.38943 36172 ft 557 kts 51°
2026-04-29 02:01 25.97179 -45.31796 36174 ft 556 kts 51°
2026-04-29 02:01 26.01486 -45.24660 36177 ft 556 kts 51°
2026-04-29 02:02 26.05793 -45.17515 36168 ft 556 kts 50°
2026-04-29 02:02 26.10099 -45.10362 36173 ft 556 kts 51°
2026-04-29 02:03 26.14399 -45.03205 36181 ft 556 kts 50°
2026-04-29 02:03 26.18688 -44.96056 36170 ft 555 kts 50°
2026-04-29 02:04 26.22979 -44.88894 36173 ft 555 kts 50°
2026-04-29 02:04 26.27258 -44.81740 36176 ft 555 kts 51°
2026-04-29 02:05 26.31538 -44.74572 36176 ft 555 kts 50°
2026-04-29 02:05 26.35807 -44.67412 36176 ft 554 kts 50°
2026-04-29 02:06 26.40071 -44.60249 36185 ft 554 kts 50°
2026-04-29 02:06 26.44331 -44.53082 36175 ft 554 kts 50°
2026-04-29 02:07 26.48581 -44.45920 36175 ft 554 kts 50°
2026-04-29 02:07 26.52833 -44.38745 36180 ft 554 kts 50°
2026-04-29 02:08 26.57070 -44.31581 36180 ft 553 kts 50°
2026-04-29 02:08 26.61307 -44.24408 36177 ft 553 kts 50°
2026-04-29 02:09 26.65539 -44.17230 36180 ft 553 kts 50°
2026-04-29 02:09 26.69764 -44.10054 36179 ft 552 kts 51°
2026-04-29 02:10 26.73980 -44.02879 36187 ft 552 kts 51°
2026-04-29 02:10 26.78163 -43.95752 36176 ft 551 kts 51°
2026-04-29 02:11 26.82363 -43.88584 36176 ft 551 kts 51°
2026-04-29 02:11 26.86563 -43.81406 36185 ft 551 kts 50°
2026-04-29 02:12 26.90748 -43.74240 36176 ft 550 kts 51°
2026-04-29 02:12 26.94930 -43.67068 36168 ft 549 kts 51°
2026-04-29 02:13 26.99106 -43.59895 36186 ft 549 kts 50°
2026-04-29 02:13 27.03272 -43.52727 36180 ft 548 kts 50°
2026-04-29 02:14 27.07430 -43.45563 36176 ft 548 kts 51°
2026-04-29 02:14 27.11584 -43.38391 36186 ft 548 kts 50°
2026-04-29 02:15 27.15731 -43.31223 36190 ft 547 kts 50°
2026-04-29 02:15 27.19870 -43.24055 36182 ft 547 kts 51°
2026-04-29 02:16 27.24007 -43.16881 36179 ft 547 kts 51°
2026-04-29 02:16 27.28140 -43.09702 36184 ft 547 kts 51°
2026-04-29 02:17 27.32273 -43.02509 36220 ft 547 kts 51°
2026-04-29 02:17 27.36386 -42.95338 36179 ft 544 kts 51°
2026-04-29 02:18 27.40484 -42.88183 36184 ft 544 kts 51°
2026-04-29 02:18 27.44580 -42.81022 36196 ft 544 kts 51°
2026-04-29 02:19 27.48666 -42.73865 36182 ft 543 kts 51°
2026-04-29 02:19 27.52746 -42.66708 36179 ft 543 kts 51°
2026-04-29 02:20 27.56822 -42.59546 36189 ft 543 kts 51°
2026-04-29 02:20 27.60892 -42.52381 36183 ft 543 kts 51°
2026-04-29 02:21 27.64931 -42.45261 36185 ft 542 kts 51°
2026-04-29 02:21 27.68993 -42.38087 36177 ft 542 kts 51°
2026-04-29 02:22 27.73047 -42.30915 36178 ft 541 kts 51°
2026-04-29 02:22 27.77091 -42.23750 36176 ft 541 kts 51°
2026-04-29 02:23 27.81133 -42.16577 36184 ft 541 kts 51°
2026-04-29 02:23 27.85169 -42.09400 36174 ft 540 kts 51°
2026-04-29 02:24 27.89194 -42.02234 36174 ft 540 kts 51°
2026-04-29 02:25 27.95227 -41.91468 36173 ft 540 kts 51°
2026-04-29 02:25 27.99240 -41.84293 36180 ft 539 kts 51°
2026-04-29 02:26 28.03241 -41.77126 36191 ft 539 kts 51°
2026-04-29 02:26 28.07239 -41.69953 36175 ft 538 kts 51°
2026-04-29 02:27 28.11235 -41.62772 36175 ft 538 kts 51°
2026-04-29 02:27 28.15221 -41.55597 36182 ft 538 kts 51°
2026-04-29 02:28 28.19207 -41.48409 36170 ft 538 kts 51°
2026-04-29 02:28 28.23188 -41.41220 36170 ft 538 kts 51°
2026-04-29 02:29 28.27163 -41.34028 36186 ft 538 kts 51°
2026-04-29 02:29 28.31132 -41.26833 36170 ft 538 kts 51°
2026-04-29 02:30 28.35096 -41.19637 36173 ft 538 kts 51°
2026-04-29 02:30 28.39056 -41.12437 36173 ft 538 kts 51°
2026-04-29 02:31 28.43014 -41.05227 36169 ft 538 kts 51°
2026-04-29 02:31 28.46968 -40.98012 36168 ft 538 kts 51°
2026-04-29 02:32 28.50920 -40.90789 36176 ft 538 kts 51°
2026-04-29 02:32 28.54862 -40.83570 36170 ft 537 kts 51°
2026-04-29 02:33 28.58803 -40.76342 36173 ft 537 kts 51°
2026-04-29 02:33 28.62737 -40.69115 36181 ft 537 kts 51°
2026-04-29 02:34 28.66662 -40.61891 36164 ft 535 kts 51°
2026-04-29 02:34 28.70566 -40.54691 36165 ft 534 kts 51°
2026-04-29 02:35 28.74463 -40.47494 36196 ft 534 kts 51°
2026-04-29 02:35 28.78355 -40.40297 36170 ft 533 kts 52°
2026-04-29 02:36 28.82240 -40.33096 36171 ft 533 kts 52°
2026-04-29 02:36 28.86093 -40.25944 36170 ft 533 kts 52°
2026-04-29 02:37 28.89970 -40.18735 36171 ft 533 kts 52°
2026-04-29 02:37 28.93846 -40.11515 36168 ft 533 kts 52°
2026-04-29 02:38 28.97713 -40.04297 36168 ft 533 kts 52°
2026-04-29 02:38 29.01549 -39.97041 36170 ft 535 kts 54°
2026-04-29 02:39 29.05009 -39.89475 36167 ft 538 kts 57°
2026-04-29 02:39 29.08350 -39.81828 36167 ft 538 kts 57°
2026-04-29 02:40 29.11739 -39.74206 36168 ft 538 kts 57°
2026-04-29 02:40 29.15169 -39.66600 36167 ft 538 kts 57°
2026-04-29 02:41 29.18607 -39.59001 36167 ft 538 kts 57°
2026-04-29 02:41 29.22041 -39.51393 36169 ft 538 kts 56°
2026-04-29 02:42 29.25470 -39.43778 36165 ft 538 kts 57°
2026-04-29 02:42 29.28891 -39.36162 36165 ft 538 kts 57°
2026-04-29 02:43 29.32307 -39.28540 36166 ft 537 kts 56°
2026-04-29 02:43 29.35719 -39.20916 36164 ft 537 kts 57°
2026-04-29 02:44 29.39099 -39.13349 36164 ft 537 kts 57°
2026-04-29 02:44 29.42498 -39.05722 36164 ft 537 kts 56°
2026-04-29 02:45 29.45889 -38.98098 36159 ft 536 kts 57°
2026-04-29 02:45 29.49278 -38.90467 36155 ft 536 kts 57°
2026-04-29 02:46 29.52661 -38.82833 36159 ft 536 kts 57°
2026-04-29 02:46 29.56040 -38.75191 36156 ft 536 kts 57°
2026-04-29 02:47 29.59412 -38.67551 36156 ft 537 kts 57°
2026-04-29 02:47 29.62237 -38.61140 36158 ft 536 kts 57°
2026-04-29 02:48 29.65576 -38.53547 36155 ft 536 kts 57°
2026-04-29 02:48 29.68929 -38.45907 36153 ft 535 kts 57°
2026-04-29 02:49 29.72279 -38.38258 36160 ft 535 kts 56°
2026-04-29 02:49 29.75617 -38.30619 36154 ft 534 kts 56°
2026-04-29 02:50 29.78947 -38.22991 36152 ft 534 kts 57°
2026-04-29 02:50 29.82273 -38.15353 36152 ft 533 kts 56°
2026-04-29 02:51 29.85582 -38.07736 36151 ft 531 kts 56°
2026-04-29 02:51 29.88884 -38.00125 36149 ft 531 kts 56°
2026-04-29 02:52 29.92182 -37.92507 36153 ft 531 kts 56°
2026-04-29 02:52 29.95470 -37.84894 36145 ft 529 kts 56°
2026-04-29 02:53 29.98746 -37.77297 36147 ft 529 kts 56°
2026-04-29 02:53 30.02020 -37.69689 36156 ft 529 kts 56°
2026-04-29 02:54 30.05283 -37.62091 36147 ft 528 kts 56°
2026-04-29 02:54 30.08541 -37.54488 36144 ft 528 kts 56°
2026-04-29 02:55 30.11795 -37.46880 36168 ft 528 kts 56°
2026-04-29 02:55 30.15045 -37.39267 36145 ft 528 kts 56°
2026-04-29 02:56 30.18284 -37.31664 36141 ft 528 kts 56°
2026-04-29 02:56 30.21523 -37.24045 36142 ft 528 kts 56°
2026-04-29 02:57 30.24752 -37.16434 36131 ft 528 kts 56°
2026-04-29 02:57 30.27959 -37.08860 36128 ft 528 kts 56°
2026-04-29 02:58 30.31183 -37.01233 36126 ft 528 kts 56°
2026-04-29 02:58 30.34398 -36.93608 36137 ft 527 kts 56°
2026-04-29 02:59 30.37605 -36.85986 36137 ft 526 kts 56°
2026-04-29 02:59 30.40809 -36.78358 36137 ft 526 kts 56°
2026-04-29 03:00 30.44004 -36.70736 36140 ft 525 kts 56°
2026-04-29 03:00 30.47184 -36.63129 36140 ft 524 kts 56°
2026-04-29 03:01 30.50357 -36.55528 36131 ft 523 kts 56°
2026-04-29 03:01 30.53520 -36.47938 36132 ft 522 kts 56°
2026-04-29 03:02 30.56678 -36.40345 36130 ft 522 kts 56°
2026-04-29 03:02 30.59830 -36.32751 36130 ft 522 kts 56°
2026-04-29 03:03 30.62977 -36.25149 36160 ft 523 kts 55°
2026-04-29 03:03 30.66115 -36.17551 36130 ft 521 kts 55°
2026-04-29 03:04 30.69247 -36.09955 36128 ft 521 kts 55°
2026-04-29 03:04 30.72376 -36.02353 36135 ft 521 kts 55°
2026-04-29 03:05 30.75495 -35.94758 36127 ft 520 kts 55°
2026-04-29 03:05 30.78606 -35.87163 36126 ft 520 kts 55°
2026-04-29 03:06 30.81712 -35.79572 36123 ft 520 kts 55°
2026-04-29 03:06 30.84815 -35.71969 36127 ft 520 kts 56°
2026-04-29 03:07 30.87910 -35.64369 36123 ft 520 kts 56°
2026-04-29 03:07 30.91004 -35.56759 36121 ft 520 kts 56°
2026-04-29 03:08 30.94094 -35.49138 36139 ft 520 kts 56°
2026-04-29 03:08 30.97158 -35.41566 36116 ft 520 kts 56°
2026-04-29 03:09 31.00237 -35.33943 36116 ft 520 kts 56°
2026-04-29 03:09 31.03313 -35.26312 36117 ft 520 kts 56°
2026-04-29 03:10 31.06382 -35.18679 36115 ft 519 kts 56°
2026-04-29 03:10 31.09444 -35.11048 36110 ft 519 kts 56°
2026-04-29 03:11 31.12501 -35.03417 36109 ft 519 kts 56°
2026-04-29 03:11 31.15554 -34.95778 36117 ft 519 kts 56°
2026-04-29 03:12 31.18595 -34.88151 36109 ft 518 kts 56°
2026-04-29 03:12 31.21634 -34.80514 36107 ft 518 kts 56°
2026-04-29 03:13 31.24669 -34.72874 36137 ft 518 kts 56°
2026-04-29 03:13 31.27696 -34.65233 36105 ft 517 kts 56°
2026-04-29 03:14 31.30714 -34.57601 36103 ft 517 kts 56°
2026-04-29 03:14 31.33726 -34.49968 36103 ft 517 kts 56°
2026-04-29 03:15 31.36736 -34.42324 36107 ft 517 kts 57°
2026-04-29 03:15 31.39738 -34.34684 36103 ft 516 kts 57°
2026-04-29 03:16 31.42731 -34.27046 36098 ft 516 kts 57°
2026-04-29 03:16 31.45725 -34.19396 36108 ft 516 kts 57°
2026-04-29 03:17 31.48710 -34.11747 36097 ft 516 kts 57°
2026-04-29 03:17 31.51691 -34.04094 36120 ft 516 kts 57°
2026-04-29 03:18 31.54665 -33.96441 36086 ft 515 kts 57°
2026-04-29 03:18 31.57630 -33.88797 36091 ft 515 kts 57°
2026-04-29 03:19 31.60590 -33.81148 36092 ft 515 kts 57°
2026-04-29 03:19 31.63548 -33.73488 36091 ft 515 kts 57°
2026-04-29 03:20 31.66502 -33.65824 36085 ft 515 kts 58°
2026-04-29 03:20 31.69451 -33.58153 36086 ft 516 kts 58°
2026-04-29 03:21 31.72396 -33.50475 36084 ft 516 kts 58°
2026-04-29 03:21 31.75336 -33.42793 36084 ft 516 kts 58°
2026-04-29 03:22 31.78276 -33.35098 36081 ft 516 kts 58°
2026-04-29 03:22 31.81191 -33.27448 36079 ft 516 kts 58°
2026-04-29 03:23 31.84121 -33.19741 36078 ft 516 kts 59°
2026-04-29 03:23 31.87044 -33.12037 36075 ft 516 kts 59°
2026-04-29 03:24 31.89966 -33.04319 36077 ft 516 kts 59°
2026-04-29 03:24 31.92883 -32.96593 36074 ft 516 kts 59°
2026-04-29 03:25 31.95793 -32.88872 36093 ft 516 kts 59°
2026-04-29 03:25 31.98703 -32.81134 36072 ft 517 kts 60°
2026-04-29 03:26 32.01605 -32.73396 36072 ft 517 kts 60°
2026-04-29 03:26 32.04509 -32.65639 36070 ft 517 kts 60°
2026-04-29 03:27 32.07405 -32.57887 36070 ft 517 kts 60°
2026-04-29 03:27 32.10298 -32.50123 36061 ft 517 kts 61°
2026-04-29 03:28 32.13188 -32.42349 36061 ft 517 kts 61°
2026-04-29 03:28 32.16071 -32.34576 36085 ft 517 kts 61°
2026-04-29 03:29 32.18956 -32.26785 36057 ft 518 kts 62°
2026-04-29 03:29 32.21834 -32.18987 36056 ft 518 kts 62°
2026-04-29 03:30 32.24708 -32.11182 36052 ft 518 kts 62°
2026-04-29 03:30 32.27583 -32.03362 36055 ft 519 kts 62°
2026-04-29 03:31 32.31869 -31.91667 36048 ft 520 kts 62°
2026-04-29 03:31 32.34752 -31.83777 36045 ft 520 kts 62°
2026-04-29 03:32 32.37614 -31.75929 36046 ft 520 kts 63°
2026-04-29 03:32 32.40474 -31.68065 36043 ft 520 kts 63°
2026-04-29 03:33 32.42847 -31.61525 36039 ft 520 kts 63°
2026-04-29 03:33 32.46159 -31.52377 36040 ft 520 kts 63°
2026-04-29 03:34 32.48544 -31.45778 36034 ft 521 kts 64°
2026-04-29 03:34 32.51388 -31.37889 36035 ft 521 kts 64°
2026-04-29 03:35 32.54229 -31.29988 36028 ft 521 kts 64°
2026-04-29 03:35 32.57066 -31.22078 36025 ft 522 kts 64°
2026-04-29 03:36 32.59883 -31.14208 36032 ft 522 kts 64°
2026-04-29 03:36 32.62713 -31.06282 36034 ft 522 kts 64°
2026-04-29 03:37 32.65537 -30.98354 36027 ft 522 kts 64°
2026-04-29 03:37 32.68357 -30.90424 36034 ft 522 kts 65°
2026-04-29 03:38 32.71172 -30.82481 36033 ft 522 kts 65°
2026-04-29 03:38 32.73985 -30.74525 36030 ft 522 kts 65°
2026-04-29 03:39 32.76791 -30.66571 36040 ft 522 kts 65°
2026-04-29 03:39 32.79592 -30.58610 36029 ft 522 kts 65°
2026-04-29 03:40 32.82390 -30.50641 36023 ft 522 kts 65°
2026-04-29 03:40 32.85181 -30.42672 36026 ft 522 kts 65°
2026-04-29 03:41 32.87968 -30.34699 36019 ft 522 kts 66°
2026-04-29 03:41 32.90748 -30.26721 36016 ft 522 kts 66°
2026-04-29 03:42 32.93523 -30.18737 36014 ft 522 kts 66°
2026-04-29 03:42 32.96294 -30.10747 36021 ft 522 kts 66°
2026-04-29 03:43 32.99058 -30.02757 36013 ft 521 kts 66°
2026-04-29 03:43 33.01913 -29.94827 36012 ft 521 kts 63°
2026-04-29 03:44 33.05114 -29.87080 36004 ft 521 kts 62°
2026-04-29 03:44 33.08345 -29.79360 36006 ft 521 kts 63°
2026-04-29 03:45 33.11522 -29.71596 36004 ft 521 kts 63°
2026-04-29 03:45 33.14659 -29.63818 36002 ft 521 kts 63°
2026-04-29 03:46 33.17788 -29.56023 35999 ft 521 kts 63°
2026-04-29 03:46 33.20914 -29.48226 35999 ft 520 kts 64°
2026-04-29 03:47 33.24037 -29.40423 35993 ft 520 kts 64°
2026-04-29 03:47 33.27152 -29.32621 35991 ft 520 kts 64°
2026-04-29 03:48 33.30263 -29.24811 35989 ft 520 kts 64°
2026-04-29 03:48 33.33372 -29.16994 35988 ft 520 kts 64°
2026-04-29 03:49 33.36476 -29.09167 35986 ft 521 kts 65°
2026-04-29 03:49 33.39573 -29.01339 35979 ft 521 kts 65°
2026-04-29 03:50 33.42668 -28.93500 35978 ft 521 kts 65°
2026-04-29 03:50 33.45758 -28.85654 35981 ft 521 kts 65°
2026-04-29 03:51 33.48843 -28.77803 35977 ft 521 kts 65°
2026-04-29 03:51 33.51926 -28.69937 35977 ft 521 kts 65°
2026-04-29 03:52 33.55004 -28.62072 35975 ft 522 kts 66°
2026-04-29 03:52 33.58085 -28.54176 35970 ft 523 kts 66°
2026-04-29 03:53 33.61163 -28.46268 35968 ft 523 kts 66°
2026-04-29 03:53 33.64237 -28.38352 35967 ft 523 kts 66°
2026-04-29 03:54 33.67286 -28.30484 35968 ft 523 kts 66°
2026-04-29 03:54 33.70369 -28.22509 35967 ft 523 kts 66°
2026-04-29 03:55 33.73427 -28.14581 35962 ft 523 kts 66°
2026-04-29 03:55 33.76477 -28.06655 35960 ft 523 kts 66°
2026-04-29 03:56 33.79529 -27.98705 35961 ft 524 kts 66°
2026-04-29 03:56 33.82579 -27.90738 35960 ft 524 kts 66°
2026-04-29 03:57 33.85604 -27.82818 35958 ft 524 kts 66°
2026-04-29 03:57 33.88646 -27.74836 35952 ft 525 kts 67°
2026-04-29 03:58 33.91683 -27.66848 35949 ft 526 kts 67°
2026-04-29 03:58 33.94719 -27.58842 35949 ft 526 kts 67°
2026-04-29 03:59 33.97751 -27.50829 35951 ft 525 kts 67°
2026-04-29 03:59 34.00779 -27.42808 35951 ft 526 kts 67°
2026-04-29 04:00 34.03801 -27.34781 35948 ft 526 kts 67°
2026-04-29 04:00 34.06822 -27.26737 35948 ft 526 kts 67°
2026-04-29 04:01 34.09835 -27.18695 35939 ft 526 kts 67°
2026-04-29 04:01 34.12844 -27.10645 35937 ft 526 kts 68°
2026-04-29 04:02 34.15848 -27.02587 35940 ft 526 kts 68°
2026-04-29 04:02 34.18844 -26.94530 35939 ft 526 kts 68°
2026-04-29 04:03 34.21836 -26.86464 35925 ft 526 kts 68°
2026-04-29 04:03 34.24821 -26.78402 35933 ft 526 kts 68°
2026-04-29 04:04 34.27781 -26.70381 35927 ft 526 kts 68°
2026-04-29 04:04 34.30773 -26.62256 35925 ft 525 kts 68°
2026-04-29 04:05 34.33740 -26.54179 35920 ft 525 kts 68°
2026-04-29 04:05 34.36682 -26.46150 35925 ft 525 kts 68°
2026-04-29 04:06 34.39636 -26.38067 35923 ft 525 kts 68°
2026-04-29 04:06 34.42586 -26.29975 35922 ft 525 kts 68°
2026-04-29 04:07 34.45529 -26.21883 35924 ft 525 kts 68°
2026-04-29 04:07 34.48469 -26.13777 35925 ft 526 kts 68°
2026-04-29 04:08 34.51407 -26.05661 35924 ft 526 kts 68°
2026-04-29 04:08 34.54335 -25.97547 35930 ft 525 kts 68°
2026-04-29 04:09 34.57260 -25.89422 35929 ft 524 kts 68°
2026-04-29 04:09 34.60169 -25.81322 35931 ft 523 kts 68°
2026-04-29 04:10 34.63072 -25.73218 35941 ft 523 kts 68°
2026-04-29 04:10 34.65968 -25.65113 35941 ft 523 kts 68°
2026-04-29 04:11 34.68859 -25.57001 35943 ft 523 kts 68°
2026-04-29 04:11 34.71742 -25.48887 35951 ft 523 kts 69°
2026-04-29 04:12 34.74619 -25.40772 35951 ft 523 kts 69°
2026-04-29 04:12 34.77492 -25.32648 35947 ft 523 kts 69°
2026-04-29 04:13 34.80360 -25.24516 35951 ft 523 kts 69°
2026-04-29 04:13 34.83223 -25.16376 35950 ft 523 kts 69°
2026-04-29 04:14 34.86079 -25.08239 35949 ft 523 kts 69°
2026-04-29 04:14 34.88930 -25.00092 35920 ft 522 kts 69°
2026-04-29 04:15 34.91773 -24.91947 35959 ft 522 kts 69°
2026-04-29 04:15 34.94609 -24.83805 35961 ft 522 kts 69°
2026-04-29 04:16 34.97437 -24.75661 35966 ft 522 kts 69°
2026-04-29 04:16 35.00262 -24.67504 35962 ft 522 kts 69°
2026-04-29 04:17 35.03075 -24.59359 35966 ft 521 kts 69°
2026-04-29 04:17 35.05881 -24.51218 35966 ft 520 kts 69°
2026-04-29 04:18 35.08209 -24.44445 35966 ft 520 kts 69°
2026-04-29 04:18 35.11004 -24.36291 35969 ft 520 kts 69°
2026-04-29 04:19 35.13796 -24.28128 35975 ft 521 kts 69°
2026-04-29 04:19 35.17037 -24.18623 35977 ft 521 kts 69°
2026-04-29 04:20 35.19368 -24.11769 35980 ft 521 kts 69°
2026-04-29 04:20 35.22147 -24.03577 35979 ft 521 kts 69°
2026-04-29 04:21 35.24922 -23.95378 35982 ft 522 kts 69°
2026-04-29 04:21 35.27692 -23.87170 35985 ft 522 kts 69°
2026-04-29 04:22 35.30455 -23.78958 35985 ft 522 kts 69°
2026-04-29 04:22 35.33194 -23.70798 35990 ft 522 kts 69°
2026-04-29 04:23 35.35949 -23.62567 35990 ft 523 kts 69°
2026-04-29 04:23 35.38701 -23.54325 35990 ft 523 kts 69°
2026-04-29 04:24 35.41450 -23.46069 35993 ft 523 kts 69°
2026-04-29 04:24 35.44190 -23.37814 35993 ft 523 kts 69°
2026-04-29 04:25 35.46927 -23.29547 35996 ft 523 kts 69°
2026-04-29 04:25 35.49661 -23.21270 35996 ft 523 kts 69°
2026-04-29 04:26 35.52388 -23.12988 35996 ft 523 kts 69°
2026-04-29 04:26 35.55111 -23.04696 35999 ft 523 kts 69°
2026-04-29 04:27 35.57827 -22.96404 35998 ft 524 kts 69°
2026-04-29 04:27 35.60540 -22.88098 35998 ft 523 kts 69°
2026-04-29 04:28 35.63244 -22.79793 36001 ft 523 kts 69°
2026-04-29 04:28 35.65943 -22.71480 36004 ft 523 kts 69°
2026-04-29 04:29 35.68635 -22.63170 36004 ft 523 kts 69°
2026-04-29 04:29 35.71319 -22.54861 36009 ft 523 kts 69°
2026-04-29 04:30 35.73998 -22.46543 36009 ft 523 kts 69°
2026-04-29 04:31 35.78002 -22.34064 36008 ft 522 kts 69°
2026-04-29 04:31 35.80665 -22.25739 36017 ft 522 kts 69°
2026-04-29 04:32 35.83320 -22.17412 36015 ft 522 kts 69°
2026-04-29 04:32 35.85952 -22.09135 36022 ft 522 kts 69°
2026-04-29 04:33 35.88596 -22.00795 36020 ft 522 kts 69°
2026-04-29 04:33 35.91232 -21.92461 36022 ft 521 kts 69°
2026-04-29 04:34 35.93858 -21.84130 36018 ft 521 kts 69°
2026-04-29 04:34 35.96483 -21.75780 36038 ft 521 kts 69°
2026-04-29 04:35 35.99093 -21.67453 36034 ft 520 kts 69°
2026-04-29 04:35 36.01697 -21.59124 36034 ft 520 kts 69°
2026-04-29 04:36 36.04295 -21.50791 36034 ft 520 kts 69°
2026-04-29 04:36 36.06887 -21.42450 36034 ft 520 kts 69°
2026-04-29 04:37 36.09473 -21.34103 36035 ft 520 kts 69°
2026-04-29 04:37 36.12054 -21.25751 36037 ft 520 kts 69°
2026-04-29 04:38 36.14629 -21.17393 36037 ft 520 kts 69°
2026-04-29 04:38 36.17200 -21.09024 36037 ft 520 kts 69°
2026-04-29 04:39 36.19761 -21.00664 36040 ft 520 kts 69°
2026-04-29 04:39 36.22317 -20.92296 36037 ft 520 kts 69°
2026-04-29 04:40 36.24869 -20.83915 36040 ft 520 kts 69°
2026-04-29 04:40 36.27412 -20.75538 36040 ft 520 kts 69°
2026-04-29 04:41 36.29949 -20.67157 36041 ft 520 kts 69°
2026-04-29 04:41 36.32481 -20.58770 36042 ft 519 kts 69°
2026-04-29 04:42 36.35007 -20.50377 36039 ft 519 kts 69°
2026-04-29 04:42 36.37527 -20.41977 36039 ft 520 kts 69°
2026-04-29 04:43 36.40042 -20.33568 36039 ft 520 kts 69°
2026-04-29 04:43 36.42552 -20.25155 36039 ft 520 kts 69°
2026-04-29 04:44 36.45055 -20.16737 36039 ft 520 kts 69°
2026-04-29 04:44 36.47535 -20.08368 36040 ft 519 kts 69°
2026-04-29 04:45 36.50024 -19.99950 36037 ft 519 kts 69°
2026-04-29 04:45 36.52664 -19.91535 36037 ft 519 kts 67°
2026-04-29 04:46 36.55407 -19.83298 36037 ft 519 kts 66°
2026-04-29 04:46 36.58166 -19.74945 36037 ft 519 kts 66°
2026-04-29 04:47 36.60856 -19.66683 36036 ft 518 kts 67°
2026-04-29 04:47 36.63548 -19.58350 36036 ft 518 kts 67°
2026-04-29 04:48 36.66230 -19.50020 36037 ft 518 kts 67°
2026-04-29 04:48 36.68907 -19.41681 36037 ft 518 kts 67°
2026-04-29 04:49 36.71578 -19.33343 36036 ft 518 kts 67°
2026-04-29 04:49 36.74245 -19.24995 36034 ft 518 kts 67°
2026-04-29 04:50 36.76904 -19.16648 36033 ft 518 kts 67°
2026-04-29 04:50 36.79556 -19.08296 36036 ft 518 kts 67°
2026-04-29 04:51 36.82198 -18.99951 36035 ft 517 kts 67°
2026-04-29 04:51 36.84833 -18.91608 36029 ft 517 kts 67°
2026-04-29 04:52 36.87464 -18.83252 36026 ft 517 kts 67°
2026-04-29 04:52 36.90086 -18.74898 36026 ft 517 kts 67°
2026-04-29 04:53 36.92704 -18.66534 36023 ft 517 kts 67°
2026-04-29 04:53 36.95316 -18.58163 36023 ft 517 kts 67°
2026-04-29 04:54 36.97922 -18.49789 36027 ft 517 kts 67°
2026-04-29 04:54 37.00524 -18.41403 36029 ft 517 kts 67°
2026-04-29 04:55 37.03116 -18.33025 36026 ft 517 kts 67°
2026-04-29 04:55 37.05705 -18.24631 36024 ft 517 kts 67°
2026-04-29 04:56 37.08284 -18.16241 36011 ft 517 kts 67°
2026-04-29 04:56 37.10842 -18.07900 36018 ft 517 kts 67°
2026-04-29 04:57 37.13413 -17.99490 36016 ft 517 kts 67°
2026-04-29 04:57 37.15975 -17.91081 36019 ft 517 kts 67°
2026-04-29 04:58 37.18535 -17.82658 36015 ft 517 kts 67°
2026-04-29 04:58 37.21087 -17.74235 36016 ft 517 kts 67°
2026-04-29 04:59 37.23634 -17.65802 36012 ft 517 kts 67°
2026-04-29 04:59 37.26177 -17.57358 36019 ft 517 kts 67°
2026-04-29 05:00 37.28713 -17.48911 36008 ft 517 kts 67°
2026-04-29 05:00 37.31244 -17.40453 36010 ft 517 kts 67°
2026-04-29 05:01 37.33769 -17.31991 36009 ft 517 kts 67°
2026-04-29 05:01 37.36288 -17.23523 36007 ft 517 kts 67°
2026-04-29 05:02 37.38802 -17.15046 36015 ft 517 kts 67°
2026-04-29 05:02 37.41310 -17.06562 36001 ft 517 kts 67°
2026-04-29 05:03 37.43811 -16.98074 36001 ft 517 kts 67°
2026-04-29 05:03 37.46308 -16.89579 35994 ft 518 kts 67°
2026-04-29 05:04 37.48798 -16.81077 35997 ft 518 kts 67°
2026-04-29 05:04 37.51282 -16.72572 35993 ft 518 kts 67°
2026-04-29 05:05 37.53760 -16.64057 35993 ft 517 kts 67°
2026-04-29 05:05 37.55812 -16.56987 35993 ft 517 kts 67°
2026-04-29 05:06 37.58276 -16.48472 35995 ft 517 kts 67°
2026-04-29 05:06 37.60734 -16.39953 35993 ft 517 kts 67°
2026-04-29 05:07 37.63187 -16.31423 35993 ft 517 kts 67°
2026-04-29 05:07 37.65633 -16.22892 35990 ft 517 kts 67°
2026-04-29 05:08 37.68075 -16.14347 35983 ft 517 kts 67°
2026-04-29 05:08 37.70511 -16.05796 35979 ft 517 kts 67°
2026-04-29 05:09 37.72939 -15.97246 35983 ft 517 kts 67°
2026-04-29 05:09 37.75363 -15.88682 35979 ft 518 kts 67°
2026-04-29 05:10 37.77782 -15.80108 35975 ft 518 kts 67°
2026-04-29 05:10 37.80180 -15.71583 35972 ft 518 kts 67°
2026-04-29 05:11 37.82588 -15.62995 35966 ft 518 kts 67°
2026-04-29 05:11 37.84993 -15.54387 35966 ft 519 kts 67°
2026-04-29 05:12 37.87393 -15.45771 35965 ft 520 kts 67°
2026-04-29 05:12 37.89789 -15.37139 35963 ft 520 kts 67°
2026-04-29 05:13 37.92180 -15.28495 35957 ft 520 kts 67°
2026-04-29 05:13 37.94565 -15.19848 35951 ft 520 kts 67°
2026-04-29 05:14 37.96942 -15.11199 35952 ft 520 kts 67°
2026-04-29 05:14 37.99316 -15.02535 35952 ft 520 kts 68°
2026-04-29 05:15 38.01601 -14.93838 35969 ft 521 kts 70°
2026-04-29 05:15 38.03648 -14.84998 35951 ft 523 kts 71°
2026-04-29 05:16 38.05674 -14.76122 35947 ft 524 kts 70°
2026-04-29 05:16 38.07731 -14.67253 35947 ft 524 kts 70°
2026-04-29 05:17 38.09802 -14.58390 35939 ft 524 kts 70°
2026-04-29 05:17 38.11873 -14.49515 35936 ft 525 kts 70°
2026-04-29 05:18 38.13941 -14.40615 35938 ft 525 kts 70°
2026-04-29 05:18 38.16000 -14.31706 35933 ft 526 kts 70°
2026-04-29 05:19 38.18052 -14.22797 35933 ft 526 kts 70°
2026-04-29 05:19 38.20100 -14.13871 35928 ft 527 kts 70°
2026-04-29 05:20 38.22146 -14.04921 35925 ft 527 kts 70°
2026-04-29 05:20 38.24187 -13.95956 35924 ft 527 kts 71°
2026-04-29 05:21 38.26206 -13.87049 35922 ft 527 kts 71°
2026-04-29 05:21 38.28247 -13.78015 35922 ft 529 kts 71°
2026-04-29 05:22 38.30260 -13.69069 35922 ft 529 kts 71°
2026-04-29 05:22 38.32279 -13.60060 35917 ft 529 kts 71°
2026-04-29 05:23 38.34291 -13.51046 35925 ft 529 kts 71°
2026-04-29 05:23 38.36294 -13.42035 35910 ft 528 kts 71°
2026-04-29 05:24 38.38290 -13.33021 35909 ft 528 kts 71°
2026-04-29 05:24 38.40278 -13.24010 35908 ft 528 kts 71°
2026-04-29 05:25 38.42261 -13.14984 35909 ft 528 kts 71°
2026-04-29 05:25 38.44237 -13.05951 35905 ft 529 kts 71°
2026-04-29 05:26 38.46206 -12.96918 35907 ft 529 kts 71°
2026-04-29 05:26 38.48171 -12.87862 35902 ft 529 kts 72°
2026-04-29 05:27 38.50127 -12.78808 35903 ft 529 kts 72°
2026-04-29 05:27 38.53045 -12.65240 35897 ft 527 kts 72°
2026-04-29 05:28 38.54976 -12.56210 35894 ft 527 kts 72°
2026-04-29 05:28 38.56901 -12.47174 35894 ft 527 kts 72°
2026-04-29 05:29 38.58821 -12.38125 35902 ft 527 kts 73°
2026-04-29 05:29 38.60728 -12.29097 35891 ft 526 kts 73°
2026-04-29 05:30 38.62627 -12.20071 35894 ft 526 kts 73°
2026-04-29 05:30 38.64518 -12.11042 35889 ft 526 kts 73°
2026-04-29 05:31 38.66391 -12.02068 35891 ft 526 kts 73°
2026-04-29 05:31 38.68269 -11.93024 35886 ft 526 kts 73°
2026-04-29 05:32 38.70141 -11.83974 35884 ft 526 kts 73°
2026-04-29 05:32 38.72005 -11.74927 35878 ft 526 kts 73°
2026-04-29 05:33 38.73861 -11.65876 35878 ft 526 kts 73°
2026-04-29 05:33 38.75713 -11.56811 35875 ft 526 kts 73°
2026-04-29 05:34 38.77556 -11.47746 35875 ft 526 kts 73°
2026-04-29 05:34 38.79392 -11.38677 35875 ft 526 kts 73°
2026-04-29 05:35 38.81215 -11.29634 35886 ft 522 kts 74°
2026-04-29 05:35 38.83024 -11.20622 35885 ft 521 kts 74°
2026-04-29 05:36 38.84823 -11.11619 35883 ft 521 kts 74°
2026-04-29 05:36 38.86616 -11.02611 35867 ft 521 kts 74°
2026-04-29 05:37 38.88401 -10.93601 35875 ft 521 kts 75°
2026-04-29 05:37 38.90183 -10.84573 35874 ft 522 kts 75°
2026-04-29 05:38 38.91957 -10.75535 35875 ft 522 kts 75°
2026-04-29 05:38 38.93726 -10.66485 35872 ft 522 kts 75°
2026-04-29 05:39 38.95489 -10.57431 35869 ft 522 kts 75°
2026-04-29 05:39 38.97244 -10.48373 35875 ft 522 kts 75°
2026-04-29 05:40 38.98993 -10.39306 35859 ft 522 kts 75°
2026-04-29 05:40 39.00734 -10.30242 35856 ft 522 kts 75°
2026-04-29 05:41 39.02467 -10.21176 35867 ft 522 kts 75°
2026-04-29 05:41 39.04194 -10.12104 35871 ft 521 kts 76°
2026-04-29 05:42 39.05909 -10.03048 35861 ft 521 kts 76°
2026-04-29 05:42 39.07616 -9.93992 35858 ft 521 kts 76°
2026-04-29 05:43 39.09318 -9.84929 35859 ft 521 kts 76°
2026-04-29 05:43 39.11012 -9.75861 35870 ft 521 kts 76°
2026-04-29 05:44 39.12697 -9.66800 35868 ft 520 kts 76°
2026-04-29 05:44 39.14375 -9.57738 35865 ft 520 kts 76°
2026-04-29 05:45 39.16047 -9.48662 35852 ft 520 kts 76°
2026-04-29 05:45 39.17710 -9.39593 35860 ft 520 kts 77°
2026-04-29 05:46 39.19366 -9.30522 35860 ft 520 kts 77°
2026-04-29 05:46 39.21003 -9.21512 35859 ft 520 kts 77°
2026-04-29 05:47 39.22647 -9.12439 35852 ft 518 kts 77°
2026-04-29 05:47 39.24269 -9.03428 35865 ft 514 kts 78°
2026-04-29 05:48 39.25875 -8.94444 35848 ft 513 kts 78°
2026-04-29 05:48 39.27472 -8.85479 35842 ft 513 kts 78°
2026-04-29 05:49 39.29063 -8.76506 35842 ft 513 kts 78°
2026-04-29 05:49 39.30648 -8.67530 35850 ft 513 kts 78°
2026-04-29 05:50 39.32226 -8.58548 35847 ft 513 kts 78°
2026-04-29 05:50 39.33798 -8.49561 35849 ft 513 kts 78°
2026-04-29 05:51 39.35364 -8.40564 35850 ft 513 kts 78°
2026-04-29 05:51 39.36922 -8.31568 35847 ft 513 kts 78°
2026-04-29 05:52 39.38211 -8.24090 35848 ft 512 kts 78°
2026-04-29 05:52 39.40013 -8.13581 35851 ft 512 kts 78°
2026-04-29 05:53 39.41289 -8.06108 35852 ft 512 kts 78°
2026-04-29 05:53 39.42819 -7.97104 35851 ft 512 kts 78°
2026-04-29 05:54 39.44339 -7.88115 35854 ft 512 kts 78°
2026-04-29 05:54 39.45854 -7.79110 35854 ft 512 kts 78°
2026-04-29 05:55 39.47363 -7.70097 35852 ft 512 kts 78°
2026-04-29 05:55 39.48863 -7.61086 35854 ft 512 kts 78°
2026-04-29 05:56 39.50359 -7.52066 35855 ft 513 kts 79°
2026-04-29 05:56 39.51848 -7.43035 35856 ft 513 kts 79°
2026-04-29 05:57 39.53674 -7.34118 35858 ft 514 kts 72°
2026-04-29 05:57 39.56082 -7.25400 35855 ft 514 kts 70°
2026-04-29 05:58 39.58580 -7.16722 35864 ft 513 kts 70°
2026-04-29 05:58 39.61057 -7.08110 35855 ft 508 kts 71°
2026-04-29 05:59 39.63500 -6.99537 35857 ft 507 kts 71°
2026-04-29 05:59 39.65932 -6.90950 35857 ft 507 kts 71°
2026-04-29 06:00 39.68355 -6.82361 35851 ft 507 kts 71°
2026-04-29 06:00 39.70773 -6.73765 35859 ft 506 kts 71°
2026-04-29 06:01 39.73180 -6.65178 35859 ft 506 kts 71°
2026-04-29 06:01 39.75580 -6.56589 35860 ft 506 kts 71°
2026-04-29 06:02 39.77974 -6.47992 35861 ft 506 kts 71°
2026-04-29 06:02 39.80075 -6.39366 35863 ft 501 kts 81°
2026-04-29 06:03 39.81094 -6.30436 35865 ft 499 kts 85°
2026-04-29 06:03 39.81889 -6.21477 35867 ft 499 kts 86°
2026-04-29 06:04 39.82647 -6.12511 35866 ft 499 kts 86°
2026-04-29 06:04 39.83415 -6.03551 35866 ft 499 kts 86°
2026-04-29 06:05 39.84193 -5.94579 35868 ft 499 kts 86°
2026-04-29 06:05 39.84966 -5.85599 35870 ft 499 kts 86°
2026-04-29 06:06 39.85732 -5.76621 35870 ft 499 kts 86°
2026-04-29 06:06 39.86491 -5.67644 35864 ft 499 kts 86°
2026-04-29 06:07 39.87243 -5.58664 35877 ft 499 kts 86°
2026-04-29 06:07 39.87986 -5.49684 35875 ft 499 kts 86°
2026-04-29 06:08 39.88724 -5.40698 35875 ft 499 kts 86°
2026-04-29 06:08 39.89455 -5.31725 35863 ft 499 kts 86°
2026-04-29 06:09 39.90179 -5.22744 35873 ft 498 kts 86°
2026-04-29 06:09 39.90895 -5.13773 35872 ft 497 kts 87°
2026-04-29 06:10 39.91602 -5.04810 35873 ft 498 kts 87°
2026-04-29 06:10 39.92303 -4.95845 35882 ft 498 kts 87°
2026-04-29 06:11 39.92997 -4.86889 35876 ft 496 kts 88°
2026-04-29 06:11 39.93682 -4.77960 35880 ft 495 kts 88°
2026-04-29 06:12 39.94358 -4.69042 35872 ft 494 kts 88°
2026-04-29 06:12 39.95026 -4.60129 35878 ft 494 kts 88°
2026-04-29 06:13 39.95685 -4.51204 35876 ft 495 kts 88°
2026-04-29 06:13 39.96556 -4.42307 35872 ft 500 kts 77°
2026-04-29 06:14 39.97892 -4.38105 35874 ft 506 kts 62°
2026-04-29 06:14 40.00018 -4.34448 35874 ft 510 kts 47°
2026-04-29 06:14 40.02802 -4.31578 35879 ft 512 kts 31°
2026-04-29 06:14 40.06056 -4.29701 35876 ft 513 kts 15°
2026-04-29 06:15 40.09556 -4.28941 35879 ft 511 kts
2026-04-29 06:15 40.13108 -4.28860 35876 ft 511 kts 360°
2026-04-29 06:15 40.20213 -4.28206 35885 ft 513 kts
2026-04-29 06:16 40.27296 -4.26939 35877 ft 514 kts
2026-04-29 06:16 40.34356 -4.25465 35878 ft 514 kts
2026-04-29 06:17 40.41473 -4.25005 35884 ft 512 kts 357°
2026-04-29 06:17 40.48544 -4.25255 35878 ft 512 kts 356°
2026-04-29 06:18 40.55667 -4.25490 35881 ft 512 kts 357°
2026-04-29 06:18 40.62789 -4.25708 35882 ft 512 kts 357°
2026-04-29 06:19 40.69909 -4.25933 35871 ft 512 kts 356°
2026-04-29 06:19 40.73466 -4.25681 35877 ft 514 kts 10°
2026-04-29 06:19 40.76868 -4.24260 35877 ft 514 kts 25°
2026-04-29 06:20 40.79889 -4.21766 35878 ft 512 kts 41°
2026-04-29 06:20 40.82326 -4.18373 35877 ft 508 kts 56°
2026-04-29 06:20 40.84018 -4.14322 35886 ft 502 kts 72°
2026-04-29 06:20 40.85004 -4.09928 35871 ft 499 kts 78°
2026-04-29 06:21 40.87534 -4.01341 35886 ft 505 kts 65°
2026-04-29 06:21 40.91075 -3.93296 35888 ft 508 kts 60°
2026-04-29 06:22 40.94958 -3.85489 35887 ft 508 kts 58°
2026-04-29 06:22 40.98708 -3.77605 35881 ft 503 kts 71°
2026-04-29 06:23 40.99592 -3.73174 35881 ft 495 kts 86°
2026-04-29 06:23 40.99579 -3.68666 35877 ft 486 kts 102°
2026-04-29 06:23 40.98689 -3.64407 35888 ft 477 kts 118°
2026-04-29 06:23 40.97107 -3.60589 35884 ft 471 kts 128°
2026-04-29 06:24 40.94971 -3.57368 35885 ft 462 kts 143°
2026-04-29 06:24 40.92302 -3.55103 35881 ft 454 kts 159°
2026-04-29 06:24 40.89299 -3.53936 35880 ft 448 kts 174°
2026-04-29 06:24 40.86207 -3.53948 35888 ft 444 kts 190°
2026-04-29 06:25 40.80240 -3.56062 35886 ft 445 kts 193°
2026-04-29 06:25 40.74103 -3.57123 35889 ft 446 kts 185°
2026-04-29 06:26 40.67899 -3.57428 35881 ft 447 kts 182°
2026-04-29 06:26 40.61676 -3.57492 35882 ft 447 kts 181°
2026-04-29 06:27 40.55454 -3.57486 35880 ft 447 kts 181°
2026-04-29 06:27 40.49237 -3.57477 35888 ft 447 kts 182°
2026-04-29 06:28 40.43089 -3.57894 35888 ft 444 kts 195°
2026-04-29 06:28 40.40244 -3.59422 35876 ft 444 kts 210°
2026-04-29 06:28 40.37842 -3.61963 35911 ft 447 kts 225°
2026-04-29 06:29 40.33502 -3.67800 35911 ft 447 kts 220°
2026-04-29 06:29 40.28577 -3.72748 35912 ft 446 kts 214°
2026-04-29 06:30 40.20843 -3.79520 35879 ft 446 kts 212°
2026-04-29 06:30 40.18062 -3.81283 35870 ft 445 kts 197°
2026-04-29 06:31 40.15012 -3.81906 35875 ft 447 kts 181°
2026-04-29 06:31 40.11922 -3.81358 35864 ft 452 kts 166°
2026-04-29 06:31 40.09045 -3.79672 35876 ft 458 kts 150°
2026-04-29 06:31 40.06600 -3.76963 35875 ft 466 kts 135°
2026-04-29 06:32 40.04789 -3.73433 35876 ft 475 kts 119°
2026-04-29 06:32 40.03745 -3.69304 35875 ft 484 kts 104°
2026-04-29 06:32 40.03146 -3.64988 35875 ft 482 kts 108°
2026-04-29 06:32 40.02005 -3.60914 35876 ft 476 kts 120°
2026-04-29 06:33 40.00331 -3.57222 35878 ft 471 kts 129°
2026-04-29 06:33 39.96128 -3.50739 35872 ft 467 kts 138°
2026-04-29 06:34 39.91444 -3.44888 35878 ft 466 kts 141°
2026-04-29 06:34 39.86136 -3.40192 35877 ft 459 kts 158°
2026-04-29 06:35 39.80054 -3.38104 35879 ft 452 kts 177°
2026-04-29 06:35 39.73840 -3.38777 35871 ft 449 kts 196°
2026-04-29 06:36 39.68209 -3.42146 35878 ft 451 kts 212°
2026-04-29 06:36 39.63340 -3.47240 35875 ft 451 kts 225°
2026-04-29 06:36 39.61440 -3.50470 35881 ft 452 kts 237°
2026-04-29 06:37 39.60111 -3.54172 35881 ft 455 kts 248°
2026-04-29 06:37 39.58989 -3.62291 35881 ft 463 kts 265°
2026-04-29 06:38 39.59844 -3.70602 35880 ft 472 kts 283°
2026-04-29 06:38 39.62795 -3.78255 35879 ft 482 kts 303°
2026-04-29 06:39 39.67664 -3.84300 35880 ft 492 kts 323°
2026-04-29 06:39 39.72883 -3.87502 35878 ft 500 kts 341°
2026-04-29 06:40 39.79813 -3.88546 35876 ft 508 kts
2026-04-29 06:40 39.86794 -3.87094 35878 ft 510 kts
2026-04-29 06:41 39.93734 -3.85457 35874 ft 510 kts
2026-04-29 06:41 40.00726 -3.83856 35877 ft 511 kts
2026-04-29 06:42 40.07788 -3.82255 35873 ft 512 kts
2026-04-29 06:42 40.14754 -3.80666 35874 ft 511 kts
2026-04-29 06:43 40.21716 -3.78857 35874 ft 511 kts 19°
2026-04-29 06:43 40.24886 -3.76792 35879 ft 510 kts 35°
2026-04-29 06:43 40.27550 -3.73759 35908 ft 507 kts 50°
2026-04-29 06:43 40.29527 -3.69969 35912 ft 502 kts 66°
2026-04-29 06:44 40.30685 -3.65699 35914 ft 495 kts 82°
2026-04-29 06:44 40.30958 -3.61242 35912 ft 487 kts 97°
2026-04-29 06:44 40.30557 -3.56870 35908 ft 483 kts 104°
2026-04-29 06:45 40.28623 -3.48518 35902 ft 476 kts 118°
2026-04-29 06:45 40.25077 -3.41355 35882 ft 466 kts 136°
2026-04-29 06:46 40.20018 -3.36201 35883 ft 459 kts 154°
2026-04-29 06:46 40.14101 -3.33347 35886 ft 452 kts 171°
2026-04-29 06:47 40.07867 -3.33106 35881 ft 448 kts 189°
2026-04-29 06:47 40.01937 -3.35473 35877 ft 447 kts 206°
2026-04-29 06:48 39.96671 -3.39793 35873 ft 448 kts 214°
2026-04-29 06:48 39.91583 -3.44501 35887 ft 449 kts 216°
2026-04-29 06:49 39.87169 -3.50206 35878 ft 451 kts 233°
2026-04-29 06:49 39.84529 -3.57615 35876 ft 457 kts 252°
2026-04-29 06:50 39.83860 -3.65862 35877 ft 465 kts 270°
2026-04-29 06:50 39.85292 -3.74113 35875 ft 475 kts 289°
2026-04-29 06:51 39.88831 -3.81440 35878 ft 486 kts 308°
2026-04-29 06:51 39.94184 -3.86890 35877 ft 496 kts 329°
2026-04-29 06:51 39.97373 -3.88638 35883 ft 500 kts 340°
2026-04-29 06:52 40.00783 -3.89622 35879 ft 506 kts 351°
2026-04-29 06:52 40.04315 -3.89793 35876 ft 510 kts
2026-04-29 06:52 40.07822 -3.89122 35879 ft 512 kts 13°
2026-04-29 06:52 40.11190 -3.87616 35873 ft 512 kts 24°
2026-04-29 06:53 40.14303 -3.85371 35875 ft 512 kts 33°
2026-04-29 06:53 40.20232 -3.80200 35870 ft 512 kts 35°
2026-04-29 06:54 40.25538 -3.74097 35910 ft 507 kts 53°
2026-04-29 06:54 40.27497 -3.70286 35912 ft 503 kts 64°
2026-04-29 06:54 40.28884 -3.66104 35915 ft 499 kts 75°
2026-04-29 06:55 40.29838 -3.57255 35911 ft 488 kts 96°
2026-04-29 06:55 40.28445 -3.48708 35903 ft 477 kts 116°
2026-04-29 06:56 40.25014 -3.41436 35883 ft 466 kts 136°
2026-04-29 06:56 40.19991 -3.36252 35886 ft 458 kts 154°
2026-04-29 06:57 40.14074 -3.33417 35884 ft 452 kts 171°
2026-04-29 06:57 40.07843 -3.33182 35881 ft 448 kts 189°
2026-04-29 06:58 40.01955 -3.35530 35877 ft 447 kts 206°
2026-04-29 06:58 39.96656 -3.39887 35872 ft 448 kts 214°
2026-04-29 06:59 39.91568 -3.44589 35889 ft 449 kts 216°
2026-04-29 06:59 39.87163 -3.50295 35878 ft 450 kts 233°
2026-04-29 07:00 39.84560 -3.57660 35877 ft 456 kts 252°
2026-04-29 07:00 39.83886 -3.65899 35878 ft 464 kts 270°
2026-04-29 07:01 39.85341 -3.74179 35876 ft 474 kts 289°
2026-04-29 07:01 39.88861 -3.81443 35878 ft 485 kts 308°
2026-04-29 07:02 39.94012 -3.86750 35874 ft 495 kts 328°